GEFSSE_con_probscp_000.txt.gz
Probability
0 0 0 0 0 0 0 0 0 0 0 0 0 0 0 0 0 0 0 0 0 0 0 0 0 0 0 0 0 0 0 0 0 0 0 0 0 0 0 0 0 0 0
0 0 0 0 0 0 0 0 0 0 0 0 0 0 0 0 0 0 0 0 0 0 0 0 0 0 0 0 0 0 0 0 0 0 0 0 0 0 0 0 0 0 0
0 0 0 0 0 0 0 0 0 0 0 0 0 0 0 0 0 0 0 0 0 0 0 0 0 0 0 0 0 0 0 0 0 0 0 0 0 0 0 0 0 0 0
0 0 0 0 0 0 0 0 0 0 0 0 0 0 0 0 0 0 0 0 0 0 0 0 0 0 0 0 0 0 0 0 0 0 0 0 0 0 0 0 0 0 0
0 0 0 0 0 0 0 0 0 0 0 0 0 0 0 0 0 0 0 0 0 0 0 0 0 0 0 0 0 0 0 0 0 0 0 0 0 0 0 0 0 0 0
0 0 0 0 0 0 0 0 0 0 0 0 0 0 0 0 0 0 0 0 0 0 0 0 0 0 0 0 0 0 0 0 0 0 0 0 0 0 0 0 0 0 0
0 0 0 0 0 0 0 0 0 0 0 0 0 0 0 0 0 0 0 0 0 0 0 0 0 0 0 0 0 0 0 0 0 0 0 0 0 0 0 0 0 0 0
0 0 0 0 0 0 0 0 0 0 0 0 0 0 0 0 0 0 0 0 0 0 0 0 0 0 0 0 0 0 0 0 0 0 0 0 0 0 0 0 0 0 0
0 0 0 0 0 0 0 0 0 0 0 0 0 0 0 0 0 0 0 0 0 0 0 0 0 0 0 0 0 0 0 0 0 0 0 0 0 0 0 0 0 0 0
0 0 0 0 0 0 0 0 0 0 0 0 0 0 0 0 0 0 0 0 0 0 0 0 0 0 0 0 0 0 0 0 0 0 0 0 0 0 0 0 0 0 0
0 0 0 0 0 0 0 0 0 0 0 0 0 0 0 0 0 0 1 1 0 0 0 0 0 0 0 0 0 0 0 0 0 0 0 0 0 0 0 0 0 0 0
0 0 0 0 0 0 0 0 0 0 0 0 0 0 0 0 0 0 2 2 1 0 0 0 0 0 0 0 0 0 0 0 0 0 0 0 1 0 0 0 0 0 0
0 0 0 0 0 0 0 0 0 0 0 0 0 0 0 0 0 0 1 1 0 0 0 0 0 0 0 0 0 0 0 0 0 0 0 0 1 0 0 0 0 0 0
1 0 0 0 0 2 4 3 1 0 0 0 0 0 0 0 0 0 0 0 0 0 0 0 0 0 0 0 0 0 0 0 0 0 0 2 3 2 0 0 0 0 1
4 2 0 1 1 4 8 5 1 1 1 1 0 1 2 1 0 0 0 0 1 0 0 0 0 0 0 0 0 0 0 0 0 0 0 4 8 7 4 2 0 1 2
27 18 8 3 2 4 5 3 1 1 1 2 2 4 8 8 5 2 1 0 0 1 2 2 1 0 0 0 0 0 0 0 0 0 0 3 10 12 10 6 3 2 3
68 56 40 30 27 23 14 7 3 2 3 5 11 18 21 17 11 6 2 0 0 1 4 3 1 0 0 0 0 0 0 0 0 0 0 1 5 10 14 17 14 14 17
95 89 81 75 71 62 48 35 27 22 19 19 28 43 47 36 24 14 6 2 3 3 3 2 0 0 0 0 0 1 2 2 1 0 0 0 1 5 16 29 34 40 48
98 97 95 93 90 86 81 74 67 59 50 46 55 69 75 64 48 30 15 7 7 11 17 18 11 4 1 0 1 5 6 3 1 1 0 0 0 2 11 29 49 68 78
74 74 73 71 73 80 90 93 90 83 77 76 79 84 84 75 62 50 38 26 17 24 45 48 26 9 2 1 3 6 7 3 0 0 0 0 0 0 3 17 48 78 90
31 33 35 37 46 66 87 95 93 89 86 85 85 82 74 60 52 59 67 59 40 40 59 56 29 8 2 1 2 3 3 1 0 0 0 0 0 0 0 7 37 75 90
7 7 9 13 25 51 79 93 91 83 75 72 73 72 62 44 38 53 74 81 66 49 46 38 18 5 1 1 1 1 0 0 0 0 0 0 0 0 0 3 27 66 86
4 4 5 7 14 31 54 68 65 54 45 45 52 56 49 31 24 33 50 63 58 37 25 17 7 2 0 0 0 0 0 0 0 0 0 0 0 0 0 1 15 43 61
4 8 10 10 11 14 21 27 24 18 15 17 27 35 31 17 9 11 17 24 23 15 8 5 1 0 0 0 0 0 0 0 1 0 0 0 0 0 0 0 5 15 22
4 9 13 15 13 8 5 4 3 2 2 3 10 15 15 8 3 1 1 2 2 2 1 1 0 0 0 0 0 0 0 0 0 0 0 0 0 0 0 0 0 2 3
2 5 10 13 13 9 4 2 3 3 3 3 5 8 8 5 2 1 1 2 2 1 0 0 0 0 0 0 0 0 0 0 0 0 0 0 0 0 0 0 0 0 0

GEFSSE_con_probscp_006.txt.gz
Probability
0 0 0 0 0 0 0 0 0 0 0 0 0 0 0 0 0 0 0 0 0 0 0 0 0 0 0 0 0 0 0 0 0 0 0 0 0 0 0 0 0 0 0
0 0 0 0 0 0 0 0 0 0 0 0 0 0 0 0 0 0 0 0 0 0 0 0 0 0 0 0 0 0 0 0 0 0 0 0 0 0 0 0 0 0 0
0 0 0 0 0 0 0 0 0 0 0 0 0 0 0 0 0 0 0 0 0 0 0 0 0 0 0 0 0 0 0 0 0 0 0 0 0 0 0 0 0 0 0
0 0 0 0 0 0 0 0 0 0 0 0 0 0 0 0 0 0 0 0 0 0 0 0 0 0 0 0 0 0 0 0 0 0 0 0 0 0 0 0 0 0 0
0 0 0 0 0 0 0 0 0 0 0 0 0 0 0 0 0 0 0 0 0 0 0 0 0 0 0 0 0 0 0 0 0 0 0 0 0 0 0 0 0 0 0
0 0 0 0 0 0 0 0 0 0 0 0 0 0 0 0 0 0 0 0 0 0 0 0 0 0 0 0 0 0 0 0 0 0 0 0 0 0 0 0 0 0 0
0 0 0 0 0 0 0 0 0 0 0 0 0 0 0 0 0 0 0 0 0 0 0 0 0 0 0 0 0 0 0 0 0 0 0 0 1 2 1 0 0 0 0
0 0 0 0 0 1 1 0 0 0 0 0 0 0 0 0 0 0 0 0 0 0 0 0 0 0 0 0 0 0 0 0 0 0 0 6 18 21 12 3 0 0 0
2 1 0 0 0 1 1 0 0 0 0 0 0 0 0 0 0 0 0 0 0 0 0 0 0 0 0 0 0 0 0 0 0 0 0 15 47 57 33 8 0 0 0
13 7 2 0 0 1 1 0 0 0 0 0 0 0 0 0 1 1 1 1 0 0 2 3 3 1 1 0 0 0 0 0 0 0 0 23 66 82 52 16 1 0 0
38 21 5 0 0 0 0 0 0 0 0 0 0 1 1 1 2 6 9 9 8 11 17 21 18 10 4 1 0 0 0 0 0 0 6 35 77 90 62 23 3 0 0
67 40 12 7 8 4 4 7 4 1 2 2 4 8 9 5 3 13 29 34 32 34 35 36 32 18 6 2 0 0 0 0 0 0 14 50 82 89 64 26 5 0 0
84 62 34 31 36 23 17 24 17 10 13 17 22 30 28 17 9 21 51 68 66 58 47 43 40 26 11 4 2 2 2 1 0 1 17 48 72 76 59 29 8 2 1
93 83 69 68 72 59 47 51 48 38 41 49 58 62 54 40 25 34 67 87 83 73 65 62 59 45 25 14 9 8 5 3 2 4 19 38 54 65 62 41 18 6 4
98 96 93 93 94 89 82 82 82 77 77 82 86 85 79 69 56 58 80 93 83 73 77 83 81 70 52 41 31 18 9 8 13 25 37 43 51 66 76 63 37 17 10
100 100 100 100 100 100 99 99 99 98 97 96 94 93 93 90 85 85 93 96 86 73 74 85 90 88 82 76 62 41 28 29 43 62 68 62 61 73 86 83 62 40 29
99 99 99 99 100 100 100 100 100 100 100 98 96 95 97 99 98 99 100 100 95 87 83 87 93 96 96 92 81 68 63 68 78 89 91 83 77 81 90 93 85 71 60
100 99 98 98 99 100 100 99 99 100 99 99 99 98 99 100 100 100 100 100 100 98 96 95 96 96 96 93 89 87 89 92 93 94 95 93 91 90 94 96 96 91 86
96 97 97 96 97 98 99 98 99 99 99 99 99 99 100 100 100 100 100 100 100 100 100 99 99 98 98 96 95 95 95 93 89 86 86 87 83 80 86 94 98 98 98
92 95 96 95 93 95 96 97 98 99 99 99 99 99 100 100 100 100 99 99 99 99 100 100 100 100 100 100 99 96 91 83 76 70 73 75 63 52 62 82 94 97 99
90 92 95 95 93 92 93 95 97 98 99 99 99 99 100 100 99 98 95 94 95 97 99 100 100 100 100 100 99 95 88 76 59 52 60 69 56 35 37 55 74 88 96
76 79 83 88 93 93 92 91 92 94 97 97 97 98 99 99 98 95 92 89 89 92 95 98 99 99 99 99 96 93 89 80 62 50 59 71 65 42 24 27 44 68 81
43 50 61 79 92 94 89 81 77 80 84 89 94 97 98 97 96 91 86 85 86 87 91 96 98 97 94 88 82 78 77 77 70 61 61 66 64 48 26 19 26 40 51
14 21 37 63 85 91 87 76 67 64 65 71 82 91 95 96 91 83 78 81 85 86 87 89 88 85 76 62 51 46 49 54 52 45 40 40 40 33 27 25 24 22 21
2 5 15 37 66 84 88 84 76 69 62 60 67 77 88 92 84 72 68 74 81 80 76 71 66 58 45 30 21 18 22 27 23 15 11 10 10 12 17 21 19 11 7
0 1 4 18 47 77 91 92 89 82 72 64 61 68 82 88 78 65 62 70 77 73 63 56 48 36 23 14 8 7 11 15 11 3 1 0 1 4 9 12 10 5 2

GEFSSE_con_probscp_012.txt.gz
Probability
0 0 0 0 0 0 0 0 0 0 0 0 0 0 0 0 0 0 0 0 0 0 0 0 0 0 0 0 0 0 0 0 0 0 0 0 0 0 0 0 0 0 0
0 0 0 0 0 0 0 0 0 0 0 0 0 0 0 0 0 0 0 0 0 0 0 0 0 0 0 0 0 0 0 0 0 0 0 0 0 0 0 0 0 0 0
0 0 0 0 0 0 0 0 0 0 0 0 0 0 0 0 0 0 0 0 0 0 0 0 0 0 0 0 0 0 0 0 0 0 0 0 0 0 0 0 0 0 0
0 0 0 0 0 0 0 0 0 0 0 0 0 0 0 0 0 0 0 0 0 0 0 0 0 0 0 0 0 0 0 0 0 0 0 0 0 0 0 0 0 0 0
0 0 0 0 0 0 0 0 0 0 0 0 0 0 0 0 0 0 0 0 0 0 0 0 0 0 0 0 0 0 0 0 0 0 0 0 0 0 0 0 0 0 0
0 0 0 0 0 0 0 0 0 0 0 0 0 0 0 0 0 0 0 0 0 0 0 0 0 0 0 0 0 0 0 0 0 0 0 0 0 0 0 0 0 0 0
0 0 1 1 1 0 1 1 0 0 0 0 0 0 0 0 0 0 0 0 0 0 0 0 0 0 0 0 0 0 0 0 0 0 0 0 0 0 0 0 0 0 0
0 0 1 3 2 2 3 2 0 0 0 0 0 0 0 0 0 0 0 0 0 0 0 0 0 0 0 0 0 0 0 0 0 0 0 0 0 0 0 0 0 0 0
0 0 1 2 2 2 2 1 0 0 0 0 0 0 0 0 0 0 0 0 0 0 0 0 0 0 0 0 0 0 0 0 0 0 0 0 0 0 0 0 0 0 0
0 0 0 0 1 1 1 1 1 1 0 0 0 0 0 0 0 0 0 0 0 0 0 0 0 0 0 0 0 0 0 0 0 0 0 0 0 0 1 4 6 7 6
0 0 0 0 0 1 2 2 2 2 1 0 0 0 0 0 0 0 0 0 0 0 0 0 0 0 0 0 0 0 0 0 0 0 0 0 0 1 5 13 20 25 29
0 0 0 0 1 3 4 4 3 2 1 0 0 0 0 0 0 0 0 0 0 0 0 0 0 0 0 0 0 0 0 0 0 0 0 0 0 2 10 23 33 42 51
11 7 3 2 2 3 4 3 3 2 2 3 3 2 1 1 0 0 0 0 0 2 3 2 1 0 0 0 0 0 0 0 0 0 0 0 1 4 16 31 40 45 49
40 29 19 16 11 5 2 4 7 8 9 11 11 9 11 13 10 6 3 2 5 13 19 15 7 2 0 0 0 0 0 0 0 0 0 3 9 19 33 46 49 45 41
70 58 50 49 37 19 12 17 24 25 24 26 29 29 34 40 38 31 23 15 16 30 41 36 21 8 2 1 0 0 0 0 0 0 1 10 27 45 60 67 67 59 52
88 82 80 81 70 47 36 42 52 55 50 49 56 59 63 68 70 66 59 45 38 44 52 50 37 21 11 5 1 0 0 0 0 0 1 11 35 61 76 82 82 78 71
97 95 95 96 91 76 65 68 75 76 68 61 58 60 66 75 80 83 81 70 61 60 63 62 56 46 33 18 8 2 0 0 0 0 1 7 28 58 78 86 88 86 83
100 99 99 99 98 91 82 77 72 65 53 39 30 30 39 54 63 70 74 73 74 79 81 79 77 72 60 40 20 6 2 1 1 1 2 6 23 51 73 83 84 81 79
100 99 98 94 86 76 68 59 47 35 24 14 10 12 20 33 46 60 70 75 83 91 92 90 89 85 75 57 35 16 6 3 1 2 3 7 20 42 61 70 72 68 61
99 97 89 74 56 43 38 33 23 14 9 7 9 13 23 36 53 70 80 84 89 92 93 91 89 85 76 62 44 24 10 3 2 3 5 6 11 23 38 47 51 47 41
86 81 68 48 27 19 20 18 12 7 5 4 6 13 25 43 63 77 84 85 85 86 88 88 85 78 70 61 47 26 9 3 2 4 5 5 5 8 16 22 26 26 24
52 49 42 31 22 19 20 16 9 4 3 2 4 10 19 34 51 64 72 73 74 77 78 77 74 66 57 52 42 22 6 1 2 3 4 5 4 3 5 7 8 9 9
21 21 23 26 29 31 30 23 12 3 1 2 4 7 11 18 28 40 51 56 60 62 60 55 51 47 40 36 29 15 4 0 1 1 2 3 2 1 2 2 1 1 2
8 9 13 21 31 37 37 30 14 3 1 3 4 5 5 6 11 18 26 33 38 39 36 29 24 24 23 20 15 10 3 0 0 0 0 1 0 0 0 0 0 0 0
5 4 6 11 20 28 32 27 13 3 1 3 4 3 2 2 3 6 9 13 17 18 16 11 8 9 11 10 8 6 3 0 0 0 0 0 0 0 0 0 0 0 0
2 1 1 4 10 18 25 21 11 4 1 2 2 1 1 0 0 1 2 4 6 8 7 4 2 3 5 5 5 4 2 0 0 0 0 0 0 0 0 0 0 0 0

GEFSSE_con_probscp_018.txt.gz
Probability
0 0 0 0 0 0 0 0 0 0 0 0 0 0 0 0 0 0 0 0 0 0 0 0 0 0 0 0 0 0 0 0 0 0 0 0 0 0 0 0 0 0 0
0 0 0 0 0 0 0 0 0 0 0 0 0 0 0 0 0 0 0 0 0 0 0 0 0 0 0 0 0 0 0 0 0 0 0 0 0 0 0 0 0 0 0
0 0 0 0 0 0 0 0 0 0 0 0 0 0 0 0 0 0 0 0 0 0 0 0 0 0 0 0 0 0 0 0 0 0 0 0 0 0 0 0 0 0 0
0 0 0 0 0 0 0 0 0 0 0 0 0 0 0 0 0 0 0 0 0 0 0 0 0 0 0 0 0 0 0 0 0 0 0 0 0 0 0 0 0 0 0
0 0 0 0 0 0 0 0 0 0 0 0 0 0 0 0 0 0 0 0 0 0 0 0 0 0 0 0 0 0 0 0 0 0 0 0 0 0 0 0 0 0 0
0 0 0 0 0 0 0 0 0 0 0 0 0 0 0 0 0 0 0 0 0 0 0 0 0 0 0 0 0 0 0 0 0 0 0 0 0 0 0 0 0 0 0
0 0 0 0 0 0 0 0 0 0 0 0 0 0 0 0 0 0 0 0 0 0 0 0 0 0 0 0 0 0 0 0 0 0 0 0 0 0 0 0 0 0 0
0 0 0 0 0 0 0 0 0 0 0 0 0 0 0 0 0 0 0 0 0 0 0 0 0 0 0 0 0 0 0 0 0 0 0 0 0 0 0 0 0 0 0
0 0 0 0 0 0 0 0 0 0 0 0 0 0 0 0 0 0 0 0 0 0 0 0 0 0 0 0 0 0 0 0 0 0 0 0 0 0 0 0 0 0 0
0 0 0 0 0 1 1 1 1 0 0 0 0 0 0 0 0 0 0 0 0 0 0 0 0 0 0 0 0 0 0 0 0 0 0 0 0 0 0 0 0 0 0
0 0 0 0 2 4 6 7 8 6 4 3 3 2 0 0 0 0 0 0 0 0 0 0 0 0 0 0 0 0 0 0 0 0 0 0 0 0 0 0 0 0 0
0 0 1 2 6 16 23 24 26 25 21 17 13 8 5 2 1 0 0 0 0 0 0 0 0 0 1 2 1 0 0 0 0 0 0 0 0 0 0 0 0 0 0
0 0 2 4 10 27 41 41 42 45 43 36 28 23 21 14 7 2 1 1 3 2 1 0 0 1 4 8 8 4 1 0 0 0 0 0 0 0 0 0 0 0 0
0 0 1 2 8 24 37 38 40 49 52 47 42 45 50 44 31 18 11 10 11 10 9 7 7 5 8 14 16 10 2 0 0 0 0 0 0 0 0 0 0 0 0
0 0 0 1 5 14 20 21 24 35 42 42 45 59 75 78 67 50 36 27 25 28 30 30 27 20 17 18 18 12 5 1 1 0 0 0 0 0 0 0 0 0 0
3 1 0 3 8 12 11 8 10 19 26 31 38 54 74 86 84 73 58 45 44 51 57 57 49 39 30 24 19 14 10 7 4 2 1 1 0 0 0 0 0 0 0
21 15 10 13 19 20 15 12 12 16 23 30 37 45 58 71 76 75 66 57 60 71 76 72 62 52 45 39 32 26 25 22 14 7 4 2 1 1 0 0 1 1 1
55 48 40 39 40 36 29 26 28 29 33 40 43 44 47 56 64 67 65 63 70 82 88 82 74 68 63 58 53 47 46 41 27 15 8 4 2 2 1 2 4 5 5
84 79 71 64 56 45 34 30 30 29 31 36 38 37 39 45 54 61 64 67 75 87 93 90 87 83 78 72 66 61 59 53 39 23 12 6 3 2 2 5 7 8 7
81 76 67 56 44 31 22 17 14 11 13 17 19 21 24 29 39 49 56 63 73 81 85 86 85 85 84 79 70 61 57 51 42 29 16 8 3 2 3 6 9 11 13
51 46 37 27 18 12 8 5 3 1 2 4 6 8 10 13 20 27 35 45 56 62 66 70 73 76 80 79 70 56 43 33 29 25 19 11 5 3 4 5 7 12 18
20 18 14 9 6 6 5 3 3 2 2 3 3 2 2 3 6 10 15 24 34 40 45 51 57 64 69 69 63 48 29 16 12 12 14 11 6 4 3 2 5 10 14
4 5 6 7 8 9 7 6 6 5 3 2 2 1 0 0 1 2 5 10 18 24 29 33 42 53 60 60 55 43 25 12 5 3 5 6 5 3 1 1 2 4 6
0 2 5 7 9 9 7 6 7 5 3 1 1 0 0 0 0 0 1 3 8 12 15 19 28 43 54 56 50 39 26 14 6 1 1 2 2 1 0 0 1 1 1
0 1 3 4 4 4 3 3 3 2 1 0 0 0 0 0 0 0 0 0 2 5 7 9 13 25 40 45 41 31 21 13 7 2 1 1 1 0 0 0 0 0 0
0 0 1 0 0 0 0 0 0 0 0 0 0 0 0 0 0 0 0 0 1 2 4 4 4 11 24 32 31 24 16 10 6 3 1 0 0 0 0 0 0 0 0

GEFSSE_con_probscp_024.txt.gz
Probability
0 0 0 0 0 0 0 0 0 0 0 0 0 0 0 0 0 0 0 0 0 0 0 0 0 0 0 0 0 0 0 0 0 0 0 0 0 0 0 0 0 0 0
0 0 0 0 0 0 0 0 0 0 0 0 0 0 0 0 0 0 0 0 0 0 0 0 0 0 0 0 0 0 0 0 0 0 0 0 0 0 0 0 0 0 0
0 0 0 0 0 0 0 0 0 0 0 0 0 0 0 0 0 0 0 0 0 0 0 0 0 0 0 0 0 0 0 0 0 0 0 0 0 0 0 0 0 0 0
0 0 0 0 0 0 0 0 0 0 0 0 0 0 0 0 0 0 0 0 0 0 0 0 0 0 0 0 0 0 0 0 0 0 0 0 0 0 0 0 0 0 0
0 0 0 0 0 0 0 0 0 0 0 0 0 0 0 0 0 0 0 0 0 0 0 0 0 0 0 0 0 0 0 0 0 0 0 0 0 0 0 0 0 0 0
0 0 0 0 0 0 0 0 0 0 0 0 0 0 0 0 0 0 0 0 0 0 0 0 0 0 0 0 0 0 0 0 0 0 0 0 0 0 0 0 0 0 0
0 0 0 0 0 0 0 0 0 0 0 0 0 0 0 0 0 0 0 0 0 0 0 0 0 0 0 0 0 0 0 0 0 0 0 0 0 0 0 0 0 0 0
0 0 0 0 0 0 0 0 0 0 0 0 0 0 0 0 0 0 0 0 0 0 0 0 0 0 0 0 0 0 0 0 0 0 0 0 0 0 0 0 0 0 0
0 0 0 0 0 0 0 0 0 0 0 0 0 0 0 0 0 0 0 0 0 0 0 0 0 0 0 0 0 0 1 1 0 0 0 3 5 3 0 0 0 0 0
0 0 0 0 0 0 0 0 0 0 0 0 0 0 0 0 0 0 0 0 0 0 0 0 0 0 0 0 1 1 2 1 0 0 1 11 18 10 1 0 0 0 0
0 0 0 0 0 0 0 0 0 0 0 0 0 0 0 0 0 0 2 2 1 0 0 0 0 0 0 1 3 4 3 1 0 1 7 25 32 16 2 0 0 0 0
0 0 0 1 1 1 0 0 0 2 3 2 1 2 3 2 1 2 5 7 4 1 0 0 0 0 0 1 5 8 4 0 0 2 16 39 39 15 2 0 0 0 0
0 0 0 2 4 5 4 4 4 7 10 8 6 12 21 25 24 22 22 21 14 10 8 8 6 4 4 5 7 8 6 7 8 10 27 47 39 13 1 0 0 0 0
0 0 0 3 8 13 12 9 9 11 13 14 19 33 50 63 62 58 55 48 41 36 33 30 26 22 21 18 13 8 10 17 22 26 42 54 43 17 3 0 0 0 0
0 0 1 4 11 19 20 15 10 9 8 15 28 42 59 73 74 70 68 66 63 61 60 58 53 49 46 38 26 18 18 26 35 42 50 59 53 30 10 3 2 3 3
3 4 5 7 12 21 24 20 13 9 8 13 20 26 36 47 48 47 49 55 61 68 75 76 70 66 65 57 46 40 40 43 51 55 54 56 56 41 23 12 9 9 11
12 15 15 14 18 25 29 25 20 15 11 11 11 9 12 18 21 23 27 36 51 66 78 82 79 77 77 73 66 65 68 69 68 66 62 59 55 48 38 28 22 21 20
24 31 33 28 31 37 37 32 25 17 11 8 7 3 3 6 9 13 18 25 38 55 68 76 82 86 87 86 83 82 85 85 80 74 70 66 62 58 53 46 41 37 31
38 47 51 48 49 48 43 34 22 14 9 6 4 2 2 3 5 8 11 14 20 31 44 57 71 83 89 90 89 88 89 90 87 82 77 73 70 66 60 58 56 48 38
57 62 62 59 56 49 37 24 14 7 5 3 3 3 2 2 3 4 5 5 7 12 21 34 50 64 74 81 81 81 82 84 86 87 85 81 75 68 63 64 63 54 46
73 69 61 52 46 37 28 18 9 3 1 1 1 1 1 2 3 3 2 1 2 4 9 17 28 37 47 58 63 63 62 66 73 80 83 82 77 72 69 68 67 64 61
74 65 51 41 33 29 30 26 17 8 3 1 1 1 2 2 3 3 2 0 0 2 4 7 13 17 23 35 45 46 43 43 50 61 73 79 78 76 73 71 72 72 69
59 52 42 37 36 38 44 42 29 16 5 1 1 3 3 2 1 1 1 0 0 1 1 4 7 10 13 21 35 45 39 31 33 44 62 74 77 77 75 73 72 70 67
47 40 34 36 44 55 64 60 43 23 9 2 1 2 3 2 1 0 0 0 0 0 0 2 4 7 10 15 29 44 44 38 37 38 49 63 71 75 75 75 72 70 70
43 35 28 35 48 63 74 75 60 38 20 11 6 3 2 3 2 1 0 0 0 0 0 1 2 5 8 11 21 32 42 48 48 41 38 48 62 70 75 78 77 75 76
42 35 28 35 51 64 75 81 73 53 34 21 12 6 3 3 2 1 0 0 0 0 0 0 1 3 5 9 16 24 35 48 51 44 35 40 56 68 75 80 80 79 79

GEFSSE_con_probscp_030.txt.gz
Probability
0 0 0 0 0 0 0 0 0 0 0 0 0 0 0 0 0 0 0 0 0 0 0 0 0 0 0 0 0 0 0 0 0 0 0 0 0 0 0 0 0 0 0
0 0 0 0 0 0 0 0 0 0 0 0 0 0 0 0 0 0 0 0 0 0 0 0 0 0 0 0 0 0 0 0 0 0 0 0 0 0 0 0 0 0 0
0 0 0 0 0 0 0 0 0 0 0 0 0 0 0 0 0 0 0 0 0 0 0 0 0 0 0 0 0 0 0 0 0 0 0 0 0 0 0 0 0 0 0
0 0 0 0 0 0 0 0 0 0 0 0 0 0 0 0 0 0 0 0 0 0 0 0 0 0 0 0 0 0 0 0 0 0 0 0 0 0 0 0 0 0 0
0 0 0 0 0 0 0 0 0 0 0 0 0 0 0 0 0 0 0 0 0 0 0 0 0 0 0 0 0 0 0 0 0 0 0 0 0 0 0 0 0 0 0
0 0 0 0 0 0 0 0 0 0 0 0 0 0 0 0 0 0 0 0 0 0 0 0 0 0 0 0 0 0 0 0 0 0 0 0 0 0 0 0 0 0 0
0 0 0 0 0 0 0 0 0 0 0 0 0 0 0 0 0 0 0 0 0 0 0 0 0 0 0 0 0 0 0 0 0 0 0 2 7 11 7 2 1 0 0
1 0 0 0 0 0 0 0 0 0 0 0 0 0 0 0 0 0 0 0 0 0 0 0 0 0 0 0 0 0 0 0 0 0 0 9 28 40 31 15 5 1 0
6 3 1 0 0 0 0 0 0 0 0 0 0 0 0 0 0 0 0 0 0 0 0 0 0 0 0 0 0 0 0 0 0 0 0 18 54 73 62 38 16 4 0
13 9 3 1 1 0 0 0 0 0 0 0 0 0 0 0 2 5 6 5 5 5 4 5 4 3 4 7 9 9 7 4 1 0 0 24 67 91 82 60 33 12 3
16 13 8 9 10 4 4 6 4 0 0 0 2 5 5 2 3 12 22 29 32 31 31 30 26 22 19 20 27 35 32 19 6 0 4 31 74 96 91 75 49 24 11
16 14 15 29 32 16 18 27 15 8 16 15 12 22 32 24 12 18 42 62 70 70 67 62 56 51 44 37 43 61 62 38 13 3 13 46 84 98 94 84 62 36 21
20 15 23 52 61 40 41 54 38 31 48 49 39 50 68 64 40 35 60 85 92 90 82 73 70 69 61 53 54 70 75 52 29 22 36 68 92 98 97 90 71 43 27
32 22 33 69 84 71 64 68 61 54 65 74 73 77 88 87 69 62 74 86 86 86 81 73 71 72 69 63 63 69 72 62 52 54 69 86 96 98 99 94 75 48 30
50 40 51 81 96 90 79 72 65 60 65 78 85 88 90 88 79 72 75 74 70 72 75 75 75 75 73 69 66 66 66 66 68 76 87 93 96 97 98 94 80 57 40
73 69 76 91 99 97 88 78 68 63 67 76 84 85 85 84 78 68 65 64 61 63 68 72 76 77 75 73 70 66 64 64 67 75 83 89 91 93 96 95 87 70 57
93 92 94 97 100 99 95 90 81 71 72 79 79 77 74 75 71 60 54 55 58 58 58 63 69 73 75 77 79 77 72 68 65 67 72 78 84 89 93 94 90 81 76
100 100 99 99 99 100 98 94 85 77 77 75 66 63 62 57 49 40 34 37 42 41 39 43 54 64 70 75 81 81 79 76 71 66 64 68 76 83 89 91 90 87 85
99 99 98 98 99 99 97 90 80 76 72 58 45 49 49 35 24 19 14 15 18 18 18 21 33 48 56 58 58 62 71 76 76 72 68 66 71 78 83 87 89 88 87
97 97 98 99 100 99 95 87 79 73 58 37 32 40 35 20 11 8 5 3 5 7 7 8 15 26 33 32 28 32 46 59 69 73 73 71 71 75 78 82 86 88 87
86 90 94 96 96 94 89 85 82 70 46 28 27 32 27 14 9 6 3 1 2 3 3 3 4 8 11 13 13 15 20 33 48 61 71 76 75 73 74 78 83 87 88
66 71 79 85 86 84 82 81 78 65 43 28 30 36 34 25 15 8 4 3 2 1 1 1 1 1 2 5 9 9 8 13 24 36 53 70 76 77 75 74 78 82 85
47 53 62 71 76 78 80 79 72 63 50 39 42 50 52 42 26 14 7 5 3 1 0 0 1 1 1 2 4 7 6 6 8 15 28 46 66 78 79 74 71 75 80
43 48 56 64 71 77 83 82 76 69 61 55 58 66 65 50 33 22 14 10 6 2 1 1 2 3 2 1 2 4 5 4 3 4 10 22 43 66 76 76 71 72 78
37 43 52 60 68 77 84 85 79 72 68 67 71 76 71 56 43 35 30 25 16 8 4 4 5 6 4 2 2 2 3 2 1 1 2 8 23 46 65 76 78 78 78
27 35 45 55 66 76 83 83 78 73 71 73 77 80 75 64 55 48 45 41 29 13 6 5 7 7 6 5 4 3 2 1 0 0 0 2 12 32 54 72 82 83 83

GEFSSE_con_probscp_036.txt.gz
Probability
0 0 0 0 0 0 0 0 0 0 0 0 0 0 0 0 0 0 0 0 0 0 0 0 0 0 0 0 0 0 0 0 0 0 0 0 0 0 0 0 0 0 0
0 0 0 0 0 0 0 0 0 0 0 0 0 0 0 0 0 0 0 0 0 0 0 0 0 0 0 0 0 0 0 0 0 0 0 0 0 0 0 0 0 0 0
0 0 0 0 0 0 0 0 0 0 0 0 0 0 0 0 0 0 0 0 0 0 0 0 0 0 0 0 0 0 0 0 0 0 0 0 0 0 0 0 0 0 0
0 0 0 0 0 0 0 0 0 0 0 0 0 0 0 0 0 0 0 0 0 0 0 0 0 0 0 0 0 0 0 0 0 0 0 0 0 0 0 0 0 0 0
0 0 0 0 0 0 0 0 0 0 0 0 0 0 0 0 0 0 0 0 0 0 0 0 0 0 0 0 0 0 0 0 0 0 0 0 0 0 0 0 0 0 0
0 0 0 1 0 0 0 0 0 0 0 0 0 0 0 0 0 0 0 0 0 0 0 0 0 0 0 0 0 0 0 0 0 0 0 0 0 0 0 0 0 0 0
0 0 1 3 2 0 0 0 0 0 0 0 0 0 0 0 0 0 0 0 0 0 0 0 0 0 0 0 0 0 0 0 0 0 0 0 0 0 0 0 0 0 0
0 0 2 3 3 1 1 0 0 0 0 0 0 0 0 0 0 0 0 0 0 0 0 0 0 0 0 0 0 0 0 0 0 0 0 0 0 0 0 0 0 0 0
0 0 2 2 2 1 1 0 0 0 0 0 0 0 0 0 0 0 0 0 0 0 0 0 0 0 0 0 0 0 0 0 0 0 0 0 0 0 0 0 0 0 0
0 1 4 5 4 2 1 0 1 1 0 0 0 0 0 0 0 0 0 0 0 0 0 0 0 0 0 0 0 0 0 0 0 0 0 0 0 0 0 2 4 3 2
4 5 10 13 11 6 2 1 2 2 1 1 0 0 0 0 0 0 0 0 0 0 0 0 0 0 0 0 0 0 0 0 0 0 0 0 0 0 2 9 16 17 14
17 16 18 22 22 16 8 4 4 4 3 2 1 0 0 0 0 0 0 0 0 0 0 0 2 4 4 4 3 3 3 2 1 0 0 0 0 1 5 19 34 38 35
38 30 24 26 28 24 13 8 8 7 5 3 1 0 0 0 0 0 0 0 2 2 2 3 6 10 12 11 10 8 7 7 6 4 1 0 1 3 8 25 45 52 50
59 45 32 26 25 22 15 11 11 9 7 4 2 1 1 1 1 0 0 1 4 6 6 5 8 12 14 15 14 12 8 7 9 9 5 2 2 4 12 27 46 55 54
69 57 42 32 23 17 15 17 17 13 10 7 4 3 6 6 4 2 0 0 3 6 6 5 6 8 9 10 11 9 5 4 7 9 8 5 3 6 15 28 44 53 53
62 56 47 40 31 23 24 30 32 27 23 19 13 13 17 16 11 5 2 0 1 3 4 3 2 3 3 4 5 4 3 2 4 6 7 6 6 7 14 26 40 48 49
44 43 42 41 38 36 38 47 51 48 42 34 26 25 29 25 16 8 2 0 0 1 2 2 1 1 1 1 2 2 2 2 3 4 5 6 7 8 11 19 30 38 42
29 30 31 34 38 41 45 52 58 57 51 42 33 32 33 27 15 6 2 0 0 0 1 1 1 0 0 0 1 1 1 1 2 2 3 5 8 11 13 16 21 28 32
23 22 22 24 30 36 41 45 48 47 42 35 30 28 26 19 10 4 1 0 0 0 0 0 0 0 0 0 0 0 0 0 0 1 1 3 7 12 16 17 19 23 23
16 15 13 14 18 25 31 33 31 29 26 21 17 17 14 10 5 2 1 0 0 0 0 0 0 0 0 0 0 0 0 0 0 0 0 1 4 9 12 17 24 26 23
10 9 7 7 10 14 17 18 17 15 13 9 7 7 7 5 3 1 0 0 0 0 0 0 0 0 0 0 0 0 0 0 0 0 0 1 2 5 7 15 26 31 30
6 5 3 3 5 7 9 9 10 9 8 6 4 3 3 3 2 1 0 0 0 0 0 0 0 0 0 0 0 0 0 0 0 0 0 0 1 3 5 11 21 28 29
3 2 1 1 2 4 5 7 8 9 8 7 5 4 3 3 2 1 0 0 0 0 0 0 0 0 0 0 0 0 0 0 0 0 0 0 0 1 2 4 10 16 20
2 1 0 0 1 2 3 5 7 8 8 8 6 5 4 3 2 0 0 0 0 0 0 0 0 0 0 0 0 0 0 0 0 0 0 0 0 0 0 1 3 7 11
1 0 0 0 0 1 1 2 3 5 5 5 5 4 4 3 1 0 0 0 0 0 0 0 0 0 0 0 0 0 0 0 0 0 0 0 0 0 0 0 0 2 4
0 0 0 0 0 0 1 1 1 2 1 2 3 2 2 2 1 1 1 1 0 0 0 0 0 0 0 0 0 0 0 0 0 0 0 0 0 0 0 0 0 0 1

GEFSSE_con_probscp_042.txt.gz
Probability
0 0 0 0 0 0 0 0 0 0 0 0 0 0 0 0 0 0 0 0 0 0 0 0 0 0 0 0 0 0 0 0 0 0 0 0 0 0 0 0 0 0 0
0 0 0 0 0 0 0 0 0 0 0 0 0 0 0 0 0 0 0 0 0 0 0 0 0 0 0 0 0 0 0 0 0 0 0 0 0 0 0 0 0 0 0
0 0 0 1 1 2 2 1 0 0 0 0 0 0 0 0 0 0 0 0 0 0 0 0 0 0 0 0 0 0 0 0 0 0 0 0 0 0 0 0 0 0 0
0 0 0 1 2 3 3 2 1 0 0 0 0 0 0 0 0 0 0 0 0 0 0 0 0 0 0 0 0 0 0 0 0 0 0 0 0 0 0 0 0 0 0
0 0 1 3 4 4 3 3 2 1 0 0 0 0 0 0 0 0 0 0 0 0 0 0 0 0 0 0 0 0 0 0 0 0 0 0 0 0 0 0 0 0 0
0 0 4 7 7 5 4 3 3 1 0 0 0 0 0 0 0 0 0 0 0 0 0 0 0 0 0 0 0 0 0 0 0 0 0 0 0 0 0 0 0 0 0
1 3 8 13 12 8 6 4 4 2 1 1 1 0 0 0 0 0 0 0 0 0 0 0 0 0 0 0 0 0 0 0 0 0 0 0 0 0 0 0 0 0 0
4 6 11 17 18 14 10 7 5 3 2 2 2 1 0 0 0 0 0 0 0 0 0 0 0 0 0 0 0 0 0 0 0 0 0 0 0 0 0 0 0 0 0
5 10 16 20 23 21 16 12 8 4 2 2 2 1 0 0 0 0 0 0 0 0 0 0 0 0 0 0 0 0 0 0 0 0 0 0 0 0 0 0 0 0 0
7 14 22 28 33 31 25 20 15 9 4 2 1 0 0 0 0 0 0 0 0 0 0 0 0 0 0 0 0 0 0 0 0 0 0 0 0 0 0 0 0 0 0
12 19 31 40 47 47 40 33 28 22 16 9 4 2 2 1 0 0 0 0 0 0 0 0 0 0 0 0 0 0 0 0 0 0 0 0 0 0 0 0 0 0 1
19 28 41 52 59 60 56 49 42 38 34 26 15 9 7 6 4 2 1 0 0 0 0 1 1 1 2 3 3 1 1 2 1 0 0 0 0 0 0 0 0 1 1
33 43 54 61 65 65 64 59 54 51 50 42 30 22 19 15 11 8 5 2 1 0 0 2 4 4 4 7 7 4 2 3 1 0 0 0 0 0 0 1 3 3 3
47 54 61 63 61 58 56 54 54 55 55 51 44 40 37 30 22 16 10 5 3 1 1 2 4 5 5 7 7 5 3 3 2 1 1 0 0 0 1 3 5 6 6
49 52 54 52 46 42 41 42 44 48 50 50 49 50 49 43 34 23 13 7 4 2 1 2 3 3 4 5 5 4 3 4 2 2 1 0 0 0 1 3 5 7 7
38 38 37 34 30 28 29 31 32 36 40 42 44 45 45 44 38 27 15 9 6 3 1 1 2 2 2 4 5 3 3 3 1 1 1 0 0 0 0 2 5 7 6
28 26 25 23 21 20 21 23 24 26 30 33 35 37 36 35 32 25 16 10 6 4 2 1 1 1 1 2 3 2 2 1 0 0 0 0 0 0 0 2 5 7 7
20 19 19 19 17 15 15 17 18 19 22 24 27 30 28 25 24 21 15 10 6 3 1 0 0 0 0 1 1 0 0 0 0 0 0 0 0 0 0 1 4 5 5
13 13 14 14 13 12 12 13 14 15 17 18 20 24 23 21 21 19 14 9 5 2 0 0 0 0 0 0 0 0 0 0 0 0 0 0 0 0 0 0 2 3 3
5 6 7 7 8 9 9 10 10 12 13 13 15 17 17 18 19 16 11 6 2 0 0 0 0 0 0 0 0 0 0 0 0 0 0 0 0 0 0 0 1 2 2
2 3 3 4 4 4 5 7 8 7 7 7 9 10 10 12 13 11 7 3 1 0 0 0 0 0 0 0 0 0 0 0 0 0 0 0 0 0 0 0 0 1 3
2 2 2 1 1 1 2 3 4 4 3 4 4 5 5 6 6 5 3 2 0 0 0 0 0 0 0 0 0 0 0 0 0 0 0 0 0 0 0 0 0 1 2
1 1 1 0 0 0 0 1 1 1 2 3 2 1 2 2 2 1 1 1 0 0 0 0 0 0 0 0 0 0 0 0 0 0 0 0 0 0 0 0 0 0 1
0 0 0 0 0 0 0 0 0 0 1 1 0 0 0 0 0 0 0 0 0 0 0 0 0 0 0 0 0 0 0 0 0 0 0 0 0 0 0 0 0 0 0
0 0 0 0 0 0 0 0 0 0 0 0 0 0 0 0 0 0 0 0 0 0 0 0 0 0 0 0 0 0 0 0 0 0 0 0 0 0 0 0 0 0 0
0 0 0 0 0 0 0 0 0 0 0 0 0 0 0 0 0 0 0 0 0 0 0 0 0 0 0 0 0 0 0 0 0 0 0 0 0 0 0 0 0 0 0

GEFSSE_con_probscp_048.txt.gz
Probability
0 0 0 0 0 0 0 0 0 0 0 0 0 0 0 0 0 0 0 0 0 0 0 0 0 0 0 0 0 0 0 0 0 0 0 0 0 0 0 0 0 0 0
0 0 0 0 0 0 0 0 0 0 0 0 0 0 0 0 0 0 0 0 0 0 0 0 0 0 0 0 0 0 0 0 0 0 0 0 0 0 0 0 0 0 0
1 1 0 0 0 0 0 0 0 0 0 0 0 0 0 0 0 0 0 0 0 0 0 0 0 0 0 0 0 0 0 0 0 0 0 0 0 0 0 0 0 0 0
0 0 0 0 0 0 0 0 0 0 0 0 0 0 0 0 0 0 0 0 0 0 0 0 0 0 0 0 0 0 0 0 0 0 0 0 0 0 0 0 0 0 0
0 0 0 0 0 0 0 0 0 0 0 0 0 0 0 0 0 0 0 0 0 0 0 0 0 0 0 0 0 0 0 0 0 0 0 0 0 0 0 0 0 0 0
0 0 0 0 0 0 0 0 0 0 0 0 0 0 0 0 0 0 0 0 0 0 0 0 0 0 0 0 0 0 0 0 0 0 0 0 0 0 0 0 0 0 0
0 0 0 0 0 0 0 0 0 1 1 1 1 0 0 0 0 0 0 0 0 0 0 0 0 0 0 0 0 0 0 0 0 0 0 0 0 0 0 0 0 0 0
0 0 1 0 0 0 0 1 1 2 2 2 2 1 1 1 0 0 0 0 0 0 0 0 0 0 0 0 0 0 0 0 0 0 0 0 0 0 0 0 0 0 0
0 0 0 0 0 0 0 1 2 3 4 5 5 4 3 3 1 1 1 1 1 0 0 0 0 0 0 0 0 0 0 0 0 0 0 1 1 1 0 0 0 0 0
0 0 0 0 0 0 0 1 3 5 7 9 10 10 8 6 5 4 6 8 7 3 1 1 0 0 0 0 0 0 0 0 0 0 1 4 6 3 0 0 0 0 0
2 2 4 4 4 3 4 6 7 11 16 19 21 23 22 18 17 18 22 28 23 12 7 4 3 2 1 0 1 1 0 0 0 0 5 14 16 6 0 0 0 0 0
12 13 15 18 18 17 17 19 18 21 29 33 37 44 47 46 44 43 50 55 44 27 17 13 11 7 4 5 8 7 3 0 0 0 12 31 28 9 0 0 0 0 1
33 30 31 35 38 37 35 34 32 36 43 48 55 65 72 74 72 71 73 73 64 50 40 35 30 21 14 13 16 14 6 2 2 3 21 43 35 11 1 0 0 0 1
49 44 43 49 53 52 49 46 45 48 51 56 65 74 81 86 86 86 86 84 77 69 64 60 52 39 30 25 20 13 7 4 4 8 26 42 31 10 2 0 1 2 2
56 50 49 55 59 59 59 58 58 57 53 52 58 66 74 82 85 87 91 90 82 74 71 67 58 48 43 35 23 12 7 7 8 10 21 29 22 10 6 3 3 3 4
62 57 53 55 56 57 60 62 62 58 50 44 45 52 63 72 76 80 86 87 81 73 69 64 55 49 48 39 26 15 11 11 12 11 13 17 15 9 8 7 4 4 4
66 62 57 52 49 49 51 52 50 45 41 39 42 46 53 59 64 68 73 76 75 73 71 65 56 52 48 37 25 19 16 15 14 13 12 14 13 8 6 6 5 4 4
62 63 58 48 41 38 38 38 35 30 30 34 40 43 43 45 50 57 64 66 67 67 65 60 55 51 45 35 26 20 17 14 12 11 11 12 12 7 4 5 5 5 6
52 54 51 43 35 30 30 29 26 23 23 27 33 35 33 30 36 48 57 57 56 56 53 48 46 46 42 32 22 14 11 9 7 5 6 7 7 7 5 5 4 5 6
37 38 39 38 33 29 27 26 24 22 21 22 24 25 24 22 26 38 46 44 43 42 41 38 38 39 37 28 14 6 4 3 2 1 2 2 3 3 3 3 3 3 3
21 23 27 29 27 25 25 23 22 20 19 17 16 16 15 15 19 26 31 32 32 32 32 33 33 31 28 20 11 4 1 1 0 0 0 1 1 1 1 1 2 2 2
10 12 15 15 14 14 14 13 13 13 12 11 10 9 8 8 11 15 20 23 25 27 28 30 28 22 17 13 9 4 1 0 0 0 0 0 0 0 0 0 1 1 1
3 3 4 4 5 4 4 3 4 5 5 6 6 5 3 2 4 8 11 14 18 21 23 24 21 17 12 8 4 2 0 0 0 0 0 0 0 0 0 0 0 0 0
1 0 1 2 3 3 2 1 1 1 1 2 3 2 1 0 1 3 5 8 12 15 16 17 18 17 11 5 1 0 0 0 0 0 0 0 0 0 0 0 0 0 0
0 0 0 1 2 2 2 2 2 1 1 1 1 0 0 0 0 1 1 3 6 8 10 14 20 18 11 5 2 1 1 0 0 0 0 0 0 0 0 0 0 0 0
0 0 0 0 1 1 2 3 3 3 3 2 1 1 0 0 0 0 0 1 2 4 8 13 19 19 12 6 4 4 2 1 0 0 0 0 0 0 0 0 0 0 0

GEFSSE_con_probscp_054.txt.gz
Probability
35 26 17 10 3 0 0 0 0 0 0 0 0 0 0 0 0 0 0 0 0 0 0 0 0 0 0 0 0 0 0 0 0 0 0 0 0 0 0 0 0 0 0
37 25 16 10 4 1 0 0 0 0 0 0 0 0 0 0 0 0 0 0 0 0 0 0 0 0 0 0 0 0 0 0 0 0 0 0 0 0 0 0 0 0 0
28 18 11 8 4 1 0 0 0 0 0 0 0 0 0 0 0 0 0 0 0 0 0 0 0 0 0 0 0 0 0 0 0 0 0 0 0 0 0 0 0 0 0
14 9 5 6 4 2 1 0 0 0 0 0 0 0 0 0 0 0 0 0 0 0 0 0 0 0 0 0 0 0 0 0 0 0 0 0 0 0 0 0 0 0 0
8 4 3 4 4 2 1 0 0 0 0 0 0 0 0 0 0 0 0 0 0 0 0 0 0 0 0 0 0 0 0 0 0 0 0 0 0 0 0 0 0 0 0
8 5 3 3 3 2 1 0 0 0 0 0 1 1 0 0 0 0 0 0 0 0 0 0 0 0 0 0 0 0 0 0 0 0 0 0 0 0 0 0 0 0 0
14 9 5 4 3 1 1 0 0 0 0 0 2 2 1 1 1 2 3 3 2 1 0 0 0 0 0 0 0 0 0 0 0 0 1 3 3 1 0 0 0 0 0
26 19 11 7 4 3 2 1 1 1 1 2 3 4 4 5 6 7 9 10 9 7 4 1 0 0 0 0 0 0 0 0 0 0 3 11 15 9 3 0 0 0 0
40 30 16 9 7 6 5 4 3 2 3 5 6 8 8 9 11 13 18 22 21 19 14 9 4 2 1 1 0 0 0 0 0 0 5 22 36 31 15 4 0 0 0
51 38 20 13 11 8 6 6 5 4 5 7 9 10 10 10 12 16 25 34 38 36 32 26 18 12 9 6 3 1 0 0 0 0 8 33 59 59 37 16 5 2 0
52 41 28 24 19 10 11 14 10 6 9 12 15 18 16 12 11 21 36 52 60 59 56 50 41 33 26 17 11 10 7 2 0 0 12 45 76 78 58 36 19 7 3
45 40 40 44 34 18 22 31 20 17 28 28 27 36 37 26 18 28 56 76 82 82 78 74 68 58 45 30 26 31 23 7 0 2 20 57 86 87 73 54 33 18 10
39 40 51 62 55 38 42 49 36 37 54 54 46 56 63 53 42 47 71 91 95 93 89 85 83 74 57 40 40 50 41 16 3 6 30 65 88 91 82 65 46 29 20
50 50 60 75 75 65 63 64 58 59 69 71 69 73 80 80 73 72 81 92 95 93 88 84 83 78 64 50 50 58 51 29 12 14 37 64 83 88 83 70 52 34 23
70 66 72 84 87 82 78 79 75 72 72 76 81 86 89 92 91 87 87 87 88 86 82 78 77 76 71 61 58 60 55 43 29 26 39 58 71 76 75 66 49 32 21
85 81 81 85 88 86 85 85 82 77 75 77 85 91 92 92 93 90 85 81 78 73 71 70 70 70 68 63 60 57 54 52 48 40 42 53 61 62 60 54 43 29 21
91 89 85 83 84 86 87 86 83 80 78 81 85 89 88 86 87 88 81 75 69 61 59 61 61 60 58 55 52 50 50 53 53 48 46 49 52 50 47 42 36 28 23
88 87 85 83 83 86 87 85 83 81 80 82 83 82 81 78 76 77 72 65 61 56 51 49 48 49 48 44 41 40 44 48 47 41 38 38 39 39 37 33 29 23 19
74 77 81 82 83 84 84 83 82 82 80 78 77 75 72 67 61 58 55 51 50 50 46 39 36 37 37 33 29 29 34 39 35 27 23 23 25 26 26 27 23 15 10
55 61 70 76 79 79 78 76 76 76 73 68 66 63 58 51 45 41 40 39 40 42 40 34 27 25 25 23 20 19 21 24 22 16 12 11 12 13 16 21 20 11 5
36 43 55 63 65 66 66 63 62 62 58 53 49 47 41 34 31 32 33 33 33 33 34 30 23 18 16 16 14 12 11 11 10 10 8 6 5 5 9 15 19 15 9
22 28 38 44 44 46 49 45 43 43 39 36 36 34 28 22 19 21 24 25 25 25 26 27 23 16 12 11 10 8 6 4 4 4 5 4 3 4 6 10 18 20 17
13 17 24 30 30 32 34 32 29 27 23 24 28 28 23 15 10 9 11 15 17 18 21 24 22 16 12 10 7 5 4 3 2 2 2 2 3 3 3 6 13 19 18
7 11 19 25 27 29 30 29 25 18 14 16 19 21 18 12 6 4 4 7 10 12 15 19 19 17 13 10 8 5 3 3 3 1 0 1 3 4 3 4 8 13 14
5 8 18 28 31 32 33 29 23 17 12 10 9 10 10 7 5 4 4 5 5 6 8 11 14 15 13 10 8 5 3 3 3 1 0 1 4 5 5 6 9 13 16
6 8 19 33 36 35 33 28 22 19 14 8 4 3 3 3 4 4 6 7 4 2 4 6 8 10 11 10 7 4 2 3 3 2 1 1 2 4 5 9 13 17 21

GEFSSE_con_probscp_060.txt.gz
Probability
0 3 6 5 4 3 2 1 0 0 0 0 0 0 0 0 0 0 0 0 0 0 0 0 0 0 0 0 0 0 0 0 0 0 0 0 0 0 0 0 0 0 0
1 3 5 5 4 3 2 1 0 0 0 0 0 0 0 0 0 0 0 0 0 0 0 0 0 0 0 0 0 0 0 0 0 0 0 0 0 0 0 0 0 0 0
1 1 3 4 4 4 3 1 0 0 0 0 0 0 0 0 0 0 0 0 0 0 0 0 0 0 0 0 0 0 0 0 0 0 0 0 0 0 0 0 0 0 0
2 1 1 3 5 5 4 1 0 0 0 0 0 0 0 0 0 0 0 0 0 0 0 0 0 0 0 0 0 0 0 0 0 0 0 0 0 0 0 0 0 0 0
3 2 1 2 4 6 5 2 0 0 0 0 0 0 0 0 0 0 0 0 0 0 0 0 0 0 0 0 0 0 0 0 0 0 0 0 0 0 0 0 0 0 0
4 3 3 3 4 6 6 4 1 0 0 0 0 0 0 0 0 0 0 0 0 0 0 0 0 0 0 0 0 0 0 0 0 0 0 0 0 0 0 0 0 0 0
3 3 4 5 7 9 9 6 4 2 1 1 1 1 1 1 1 0 0 0 0 0 0 0 0 0 0 0 0 0 0 0 0 0 0 0 0 0 0 0 0 0 0
2 3 4 6 10 13 13 10 7 5 4 4 3 3 3 3 2 1 1 1 0 1 1 0 0 0 0 0 0 0 0 0 0 0 0 0 0 0 0 0 0 0 0
1 2 3 4 8 12 14 13 11 8 7 5 5 5 4 4 4 4 3 2 1 3 4 2 0 1 1 1 1 0 0 0 0 0 0 0 0 0 1 1 1 0 0
1 1 2 3 4 7 10 12 11 9 8 6 4 4 4 4 4 5 5 3 3 7 10 8 6 6 5 4 2 1 0 0 0 0 0 0 0 1 3 5 4 2 1
3 2 1 2 1 3 6 7 6 6 6 5 3 2 2 3 4 4 5 6 9 15 19 20 19 17 13 10 6 4 3 1 0 0 0 0 2 6 11 14 12 8 6
8 5 3 1 2 3 4 5 4 3 4 4 3 2 2 4 5 5 5 9 17 25 30 33 34 32 29 26 19 13 10 6 2 0 0 2 9 20 31 34 29 21 16
19 16 11 9 7 7 8 9 7 5 7 9 9 8 8 10 11 9 8 12 23 34 42 47 48 47 48 45 37 25 17 14 9 4 2 5 16 35 52 55 49 37 29
43 40 33 28 25 22 22 21 15 13 16 18 19 18 20 22 20 16 15 18 25 35 45 52 54 54 54 51 43 31 20 16 15 10 6 8 18 38 57 61 56 46 39
69 67 61 53 49 46 42 36 28 26 27 27 27 28 31 33 29 23 22 22 24 29 36 41 44 45 44 42 37 28 20 17 18 15 10 10 18 32 47 53 51 43 38
80 79 75 69 64 59 52 45 42 40 38 36 35 36 38 37 33 27 22 20 18 19 23 27 28 28 28 29 26 21 19 19 20 17 13 13 17 23 34 42 42 38 33
76 75 73 68 60 52 44 41 44 46 45 42 39 38 37 34 29 24 20 17 13 11 14 16 16 14 14 15 14 11 13 16 17 16 14 14 15 16 23 31 34 34 32
62 60 59 55 45 36 31 32 35 40 42 40 36 33 30 26 21 18 16 15 12 9 9 10 9 8 7 7 5 5 8 10 11 11 11 12 12 12 16 21 25 27 27
41 39 37 34 27 22 21 21 23 25 27 27 25 23 21 18 14 11 11 11 10 9 8 7 6 5 5 4 3 3 6 8 9 8 8 9 11 11 12 13 15 17 17
22 20 17 14 12 12 12 12 12 12 12 12 10 10 12 11 8 6 5 5 6 6 5 4 3 3 4 3 2 3 4 6 8 8 7 8 10 11 10 9 9 10 11
9 9 7 5 4 5 6 6 5 4 5 4 3 3 5 5 3 2 2 1 1 2 1 1 1 1 2 1 1 1 1 3 6 8 7 7 8 9 8 7 7 9 12
3 2 3 3 2 2 3 3 2 1 1 1 1 1 1 1 1 1 0 0 0 0 0 0 0 0 0 0 0 0 0 1 3 5 6 5 6 5 4 3 5 10 14
1 1 1 1 1 1 1 1 0 0 0 0 0 0 0 0 0 0 0 0 0 0 0 0 0 0 0 0 0 0 1 0 0 1 2 2 2 2 1 1 3 7 10
2 2 1 0 0 0 0 0 0 0 0 0 0 0 0 0 0 0 0 0 0 0 0 0 0 0 0 0 0 0 0 0 0 0 0 0 0 0 0 0 1 2 4
3 3 1 0 0 0 0 0 0 0 0 0 0 0 0 0 0 0 0 0 0 0 0 0 0 0 0 0 0 0 0 0 0 0 0 0 0 0 0 0 0 0 1
3 2 1 0 0 0 0 0 0 0 0 0 0 0 0 0 0 0 0 0 0 0 0 0 0 0 0 0 0 0 0 0 0 0 0 0 0 0 0 0 0 0 0

GEFSSE_con_probscp_066.txt.gz
Probability
0 0 0 0 0 2 5 5 4 5 6 8 7 4 1 0 0 0 0 0 0 0 0 0 0 0 0 0 0 0 0 0 0 0 0 0 0 0 0 0 0 0 0
1 0 1 1 1 2 5 5 4 3 4 4 4 2 0 0 0 0 0 0 0 0 0 0 0 0 0 0 0 0 0 0 0 0 0 0 0 0 0 0 0 0 0
2 1 2 2 1 2 4 5 3 2 1 1 1 0 0 0 0 0 0 0 0 0 0 0 0 0 0 0 0 0 0 0 0 0 0 0 0 0 0 0 0 0 0
3 2 2 2 1 1 3 3 2 1 0 0 0 0 0 0 0 0 0 0 0 0 0 0 0 0 0 0 0 0 0 0 0 0 0 0 0 0 0 0 0 0 0
3 2 2 2 1 1 2 2 1 0 0 0 0 0 0 0 0 0 0 0 0 0 0 0 0 0 0 0 0 0 0 0 0 0 0 0 0 0 0 0 0 0 0
3 3 4 5 4 2 2 2 1 0 0 0 0 0 0 0 0 0 0 0 0 0 0 0 0 0 0 0 0 0 0 0 0 0 0 0 0 0 0 0 0 0 0
6 6 8 9 8 6 4 3 2 1 0 0 0 0 0 0 0 0 0 0 0 0 0 0 0 0 0 0 0 0 0 0 0 0 0 0 0 0 0 0 0 0 0
8 8 9 10 10 9 8 6 4 3 1 1 1 0 0 0 0 0 0 0 0 0 0 0 0 0 0 0 0 0 0 0 0 0 0 0 0 0 0 0 0 0 0
9 8 8 9 10 10 9 8 8 6 5 4 2 1 0 0 0 0 0 0 0 0 0 0 0 0 0 0 0 0 0 0 0 0 0 0 0 0 0 0 0 0 0
10 8 8 9 10 9 9 10 11 10 8 6 3 1 0 0 0 0 0 0 1 1 0 0 1 1 1 2 2 2 2 2 1 0 0 0 0 0 0 0 0 0 0
7 6 6 7 7 6 7 9 10 10 9 7 5 3 2 1 0 0 1 1 1 1 1 1 2 3 5 7 8 8 8 6 3 1 0 0 0 0 0 0 0 0 0
5 4 4 5 5 4 5 7 9 11 12 12 10 8 6 3 2 1 2 3 2 2 2 3 6 11 15 16 16 16 14 11 8 5 2 1 0 0 0 0 0 0 0
7 5 3 4 5 4 4 6 9 12 15 15 14 12 10 7 4 4 5 6 6 6 6 8 12 19 23 22 20 17 14 11 10 8 5 2 1 0 1 2 2 2 2
14 9 4 4 6 5 4 6 8 11 13 13 13 13 12 10 9 9 9 10 11 10 9 10 14 18 20 20 17 12 10 9 8 8 7 4 4 2 3 6 8 7 6
22 16 8 5 5 6 6 7 8 9 10 11 11 11 10 12 13 12 12 12 12 9 7 8 11 12 13 13 12 9 7 7 9 9 8 6 7 7 6 10 13 14 13
26 20 14 11 10 10 11 10 7 8 10 10 9 9 10 12 13 13 12 10 8 5 4 4 7 10 9 10 11 8 6 8 10 10 8 7 9 10 10 12 17 20 23
21 19 18 18 16 13 13 11 7 5 6 6 6 8 12 14 14 13 10 7 5 3 3 3 6 8 8 8 9 8 7 9 11 10 8 8 9 12 13 14 19 25 28
12 14 16 16 13 10 8 7 4 2 1 1 2 6 11 13 11 9 8 5 4 4 4 3 4 6 7 7 7 7 8 9 9 9 8 8 10 13 14 15 19 23 24
5 6 7 7 5 3 2 2 1 0 0 0 0 2 4 6 5 4 4 4 4 4 4 3 3 4 4 4 5 6 6 7 7 6 6 5 7 10 12 14 16 18 18
1 1 1 1 1 0 0 0 0 0 0 0 0 0 0 1 1 2 2 2 2 2 2 2 2 3 3 3 4 4 4 4 4 3 2 2 3 6 8 10 13 14 15
0 0 0 0 0 0 0 0 0 0 0 0 0 0 0 0 0 1 1 1 1 1 1 0 1 1 2 2 2 2 2 3 3 3 2 1 2 4 5 7 9 11 12
0 0 0 0 0 0 0 0 0 0 0 0 0 0 0 0 0 0 0 0 0 0 0 0 0 0 1 1 1 1 1 1 2 2 2 3 4 5 5 6 7 9 10
0 0 0 0 0 0 0 0 0 0 0 0 0 0 0 0 0 0 0 0 0 0 0 0 0 0 0 0 0 0 0 0 0 0 1 2 4 5 5 6 8 9 9
0 0 0 0 0 0 0 0 0 0 0 0 0 0 0 0 0 0 0 0 0 0 0 0 0 0 0 0 0 0 0 0 0 0 0 1 1 3 3 5 8 10 10
0 0 0 0 0 0 0 0 0 0 0 0 0 0 0 0 0 0 0 0 0 0 0 0 0 0 0 0 0 0 0 0 0 0 0 0 0 1 1 3 6 8 9
0 0 0 0 0 0 0 0 0 0 0 0 0 0 0 0 0 0 0 0 0 0 0 0 0 0 0 0 0 0 0 0 0 0 0 0 0 0 0 1 3 6 8

GEFSSE_con_probscp_072.txt.gz
Probability
0 0 0 0 0 0 0 0 0 1 0 0 0 0 0 0 0 0 0 0 0 0 0 0 0 0 0 0 0 0 0 0 0 0 0 0 0 0 0 0 0 0 0
0 0 0 0 0 0 0 0 0 1 1 1 1 0 0 0 0 0 0 0 0 0 0 0 0 0 0 0 0 0 0 0 0 0 0 0 0 0 0 0 0 0 0
0 0 0 0 0 0 0 0 0 1 1 2 2 1 0 0 0 0 0 0 0 0 0 0 0 0 0 0 0 0 0 0 0 0 0 0 0 0 0 0 0 0 0
0 0 0 0 0 0 0 0 0 1 1 2 3 3 1 0 0 0 0 0 0 0 0 0 0 0 0 0 0 0 0 0 0 0 0 0 0 0 0 0 0 0 0
0 0 0 0 0 0 1 2 3 4 4 3 3 3 2 1 0 0 0 0 0 0 0 0 0 0 0 0 0 0 0 0 0 0 0 0 0 0 0 0 0 0 0
0 0 0 0 0 0 1 4 6 7 7 5 5 4 3 2 1 0 0 0 0 0 0 0 0 0 0 0 0 0 0 0 0 0 0 0 0 0 0 0 0 0 0
0 0 0 0 0 0 1 5 7 8 7 7 7 6 4 2 1 0 0 0 0 0 0 0 0 0 0 0 0 0 0 0 0 0 0 0 0 0 0 0 0 0 0
0 0 0 0 0 0 1 4 7 8 7 7 7 5 3 1 0 0 0 0 0 0 0 0 0 0 0 0 0 0 0 0 0 0 0 0 0 0 0 0 0 0 0
0 0 0 0 0 0 0 2 5 6 5 5 4 3 1 0 0 0 0 0 0 0 0 0 0 0 0 0 0 0 0 0 0 0 0 1 1 1 0 0 0 0 0
1 0 0 0 0 1 1 2 4 4 4 3 3 2 0 0 0 0 0 1 1 1 1 0 0 0 0 0 0 0 0 0 0 0 1 4 4 2 0 0 0 0 0
2 1 0 0 1 2 3 4 4 4 5 5 4 4 3 4 3 3 4 3 3 3 2 1 0 0 0 0 1 2 1 0 0 0 6 13 10 2 0 0 0 0 0
4 2 1 1 2 2 4 7 9 9 10 9 8 9 12 15 15 15 14 10 4 3 4 4 4 3 2 3 4 5 3 1 1 1 12 25 19 5 1 0 0 0 1
4 2 0 1 2 4 7 12 16 17 17 14 14 17 23 29 30 30 28 21 14 13 16 19 18 14 11 9 8 6 5 4 4 4 17 32 27 11 3 1 1 1 2
6 3 2 3 7 11 15 17 21 24 23 22 24 26 30 35 36 38 40 35 30 32 34 35 33 27 22 17 10 7 6 6 6 9 21 31 26 13 6 4 4 4 4
12 10 8 11 15 20 23 23 23 26 27 27 29 30 31 34 34 36 41 40 38 40 40 38 34 30 28 22 14 9 8 8 10 15 22 26 21 13 10 9 10 11 11
20 20 20 20 21 24 26 24 22 23 25 23 22 23 24 27 28 30 33 34 33 32 32 30 25 25 26 22 15 11 10 11 13 16 19 22 20 15 12 14 18 22 22
25 26 26 23 22 24 25 22 17 15 15 14 12 12 13 16 20 23 25 26 24 24 24 22 19 20 22 19 14 11 12 13 13 13 14 18 20 18 15 17 23 29 31
22 23 23 19 18 21 21 17 10 7 7 6 6 6 6 8 12 16 20 20 18 18 17 15 14 16 17 16 14 12 13 13 11 10 11 14 19 21 20 22 28 33 35
15 17 15 12 12 14 12 8 4 3 2 1 1 2 3 5 7 9 12 13 10 10 11 10 10 12 11 11 12 11 11 11 10 10 9 10 13 18 22 28 36 38 36
11 10 9 8 7 6 3 1 0 1 1 0 0 1 1 2 3 4 5 5 4 4 6 6 7 8 7 7 7 7 8 8 9 9 9 8 9 11 16 27 37 40 39
5 4 4 3 3 2 1 1 1 1 0 0 0 1 0 0 1 1 1 1 1 1 2 3 4 5 5 4 4 5 6 7 7 8 9 8 7 8 12 20 29 38 45
1 1 1 1 1 0 0 1 2 1 0 0 0 0 0 0 0 0 0 0 0 0 0 1 2 2 2 2 2 3 5 6 6 7 7 7 8 9 11 14 21 32 42
0 0 0 1 1 2 2 2 2 1 0 0 0 0 0 0 0 0 0 0 0 0 0 0 0 0 0 0 1 1 2 3 5 5 5 6 7 9 9 11 14 21 27
0 0 3 6 8 9 9 7 4 3 1 0 0 0 0 0 0 0 0 0 0 0 0 0 0 0 0 0 0 0 0 1 2 2 3 3 4 5 7 9 10 12 14
0 1 5 14 20 20 18 13 9 6 2 1 0 0 0 0 0 0 0 0 0 0 0 0 0 0 0 0 0 0 0 0 0 0 1 2 2 2 4 6 8 8 9
0 1 6 17 25 26 21 16 12 8 3 1 0 0 0 0 0 0 0 0 0 0 0 0 0 0 0 0 0 0 0 0 0 0 0 1 2 2 2 4 6 7 9

GEFSSE_con_probscp_078.txt.gz
Probability
6 4 4 2 0 0 0 0 0 0 0 0 0 0 0 0 0 0 0 0 0 0 0 0 0 0 0 0 0 0 0 0 0 0 0 0 0 0 0 0 0 0 0
8 4 3 3 1 0 0 0 0 0 0 0 0 0 0 0 0 0 0 0 0 0 0 0 0 0 0 0 0 0 0 0 0 0 0 0 0 0 0 0 0 0 0
5 3 3 4 3 1 0 0 0 0 0 0 0 0 0 0 0 0 0 0 0 0 0 0 0 0 0 0 0 0 0 0 0 0 0 0 0 0 0 0 0 0 0
1 2 3 6 5 2 0 0 0 0 0 0 0 0 0 0 0 0 0 0 0 0 0 0 0 0 0 0 0 0 0 0 0 0 0 0 0 0 0 0 0 0 0
1 2 4 7 7 4 1 1 0 0 0 0 0 0 0 0 0 0 0 0 0 0 0 0 0 0 0 0 0 0 0 0 0 0 0 0 0 0 0 0 0 0 0
4 4 5 7 7 3 1 1 1 1 1 1 1 1 1 0 0 0 0 0 0 0 0 0 0 0 0 0 0 0 0 0 0 0 0 0 0 0 0 0 0 0 0
9 8 7 7 6 3 1 0 1 1 2 2 2 2 2 0 0 0 0 0 0 0 0 0 0 0 0 0 0 0 0 0 0 0 1 1 0 0 0 0 0 0 0
17 13 9 7 6 4 1 0 1 2 3 4 3 3 2 0 0 0 0 0 0 0 0 0 0 0 0 1 1 1 1 0 0 0 2 4 2 1 1 0 0 0 0
23 16 10 8 7 4 2 2 3 5 5 4 3 3 2 1 0 1 1 1 1 1 1 2 2 0 0 1 2 2 1 0 0 0 3 7 7 5 3 1 0 0 0
23 17 11 9 7 4 3 5 7 7 6 4 2 2 2 1 2 4 5 6 5 3 2 3 3 1 0 1 2 2 1 0 0 1 7 15 18 14 8 4 1 1 0
25 19 16 14 8 4 7 11 10 8 6 5 6 6 5 4 7 11 13 14 12 7 3 2 3 2 1 1 1 1 0 0 0 2 13 29 35 27 17 10 5 2 1
29 25 27 25 16 10 16 20 16 17 19 15 18 22 18 16 20 25 28 26 18 11 7 7 6 6 5 5 5 4 2 0 0 4 20 40 48 41 30 21 12 6 3
28 29 37 38 29 26 32 31 27 33 40 38 40 41 36 31 34 40 42 36 27 19 18 20 18 14 11 12 12 10 5 2 2 8 23 41 48 45 39 31 22 14 9
29 34 43 48 45 45 46 42 39 44 52 55 55 52 45 40 41 46 46 43 36 32 32 33 29 23 19 17 15 12 9 6 7 12 23 35 41 40 38 35 30 24 20
39 43 52 58 57 54 51 47 43 45 48 51 51 49 44 39 39 41 42 41 37 35 35 33 28 26 23 19 16 14 12 11 14 17 23 32 37 35 32 32 33 30 28
52 56 60 62 58 53 47 41 35 34 34 35 36 35 33 31 30 31 32 31 29 28 28 25 22 22 22 21 19 17 15 14 18 21 24 32 37 36 32 32 34 33 29
62 62 58 53 51 46 40 31 22 19 20 23 24 25 25 25 23 22 22 23 23 22 21 20 19 19 20 21 20 19 17 16 18 20 23 30 33 32 31 32 34 33 29
65 60 49 41 40 38 33 24 14 10 12 15 17 20 22 19 16 16 17 19 20 18 16 17 17 18 19 19 18 19 19 19 19 18 20 24 26 25 25 29 32 29 24
59 52 42 37 33 29 24 17 10 7 7 9 12 17 17 12 8 10 12 13 14 14 13 13 14 14 15 15 14 15 16 18 19 20 18 19 19 19 20 25 29 24 16
48 44 39 35 27 17 12 9 8 7 6 6 9 12 11 7 5 5 6 7 7 9 10 10 9 8 8 9 7 8 9 10 15 19 19 16 15 14 16 24 32 28 20
37 34 31 24 15 7 5 5 7 7 5 6 9 11 9 6 4 2 2 3 3 4 6 5 4 3 4 4 4 4 4 5 9 14 16 15 12 11 13 24 37 39 34
22 20 15 10 5 3 3 4 5 5 4 5 10 11 8 6 5 4 3 2 2 2 2 2 1 1 2 3 3 3 3 4 6 8 10 11 10 11 12 20 33 40 40
8 7 7 7 7 5 5 5 5 5 5 7 11 13 10 7 7 6 4 3 2 2 1 0 0 0 1 1 2 2 3 3 4 5 5 7 10 12 11 14 21 28 30
3 5 11 18 19 16 12 9 8 8 8 10 14 15 12 9 8 6 5 4 3 3 1 0 0 0 0 0 1 1 1 2 3 3 3 5 8 10 10 11 14 18 19
6 9 20 35 39 32 23 17 14 10 9 10 12 12 10 9 7 5 5 5 4 3 1 0 0 0 0 0 0 0 0 1 1 1 1 3 4 5 7 9 11 13 14
10 14 27 47 53 42 30 22 17 11 7 5 5 5 6 7 6 4 5 7 6 3 1 0 0 0 0 0 0 0 0 0 0 0 0 1 2 2 3 6 9 10 10

GEFSSE_con_probscp_084.txt.gz
Probability
0 0 0 0 0 0 0 0 0 0 0 0 0 0 0 0 0 0 0 0 0 0 0 0 0 0 0 0 0 0 0 0 0 0 0 0 0 0 0 0 0 0 0
1 0 0 1 1 0 0 0 0 0 0 0 0 0 0 0 0 0 0 0 0 0 0 0 0 0 0 0 0 0 0 0 0 0 0 0 0 0 0 0 0 0 0
2 1 1 2 2 1 0 0 0 0 0 0 0 0 0 0 0 0 0 0 0 0 0 0 0 0 0 0 0 0 0 0 0 0 0 0 0 0 0 0 0 0 0
5 3 2 3 4 3 1 0 0 0 0 0 0 0 0 0 0 0 0 0 0 0 0 0 0 0 0 0 0 0 0 0 0 0 0 0 0 0 0 0 0 0 0
7 6 4 4 5 4 2 0 0 0 0 0 0 1 1 1 0 0 0 0 0 0 0 0 0 0 0 0 0 0 0 0 0 0 0 0 0 0 0 0 0 0 0
10 8 8 8 8 6 3 1 0 0 0 0 1 2 2 2 1 0 0 0 0 0 0 0 0 0 0 0 0 0 0 0 0 0 0 0 0 0 0 0 0 0 0
13 12 11 11 12 9 5 2 1 1 1 1 1 3 3 3 2 0 0 0 0 0 0 0 0 0 0 0 0 0 0 0 0 0 0 0 0 0 0 0 0 0 0
14 13 12 12 13 12 8 5 4 3 3 3 3 3 3 2 1 0 0 0 0 0 0 0 0 0 0 0 0 0 0 0 0 0 0 0 0 0 0 0 0 0 0
11 10 10 9 9 9 8 7 6 4 3 4 4 3 2 1 1 1 1 1 0 0 0 0 0 0 0 0 0 0 0 0 0 0 0 0 0 0 0 0 0 0 0
6 5 5 4 4 4 5 5 4 3 2 2 2 1 0 0 1 2 2 2 1 1 0 0 0 0 0 0 0 0 0 0 0 0 0 0 1 1 0 0 0 0 0
2 2 2 1 1 1 1 2 1 1 0 0 0 0 0 0 1 2 3 3 2 1 0 0 0 1 2 2 1 1 2 2 1 1 0 1 2 3 2 1 2 1 0
2 3 2 1 0 0 0 0 0 1 1 1 1 1 1 1 2 3 4 3 2 1 0 0 1 3 5 5 3 3 3 3 2 1 1 2 5 7 6 4 3 3 2
3 3 3 1 0 0 0 1 1 2 3 4 4 4 2 2 3 4 4 3 2 2 1 0 1 3 5 5 4 3 3 3 2 1 3 6 9 10 9 7 5 5 4
5 5 4 3 3 3 2 1 1 2 3 4 6 5 3 1 2 2 2 2 1 2 1 0 0 2 3 3 3 2 2 2 1 1 5 9 11 10 8 7 6 6 6
12 11 8 8 11 10 6 2 1 2 2 2 3 3 1 0 0 0 1 1 1 1 1 0 0 0 1 1 1 1 2 2 1 1 3 7 9 6 5 5 5 4 5
19 18 16 14 14 13 8 3 2 2 1 0 1 1 1 0 0 0 1 1 0 0 0 0 0 0 0 0 0 0 1 1 1 1 2 4 5 4 4 5 4 2 2
21 20 18 14 11 8 5 2 1 1 0 0 0 0 0 0 0 0 0 0 0 0 0 0 0 0 0 0 0 0 0 0 0 0 1 3 3 3 5 6 4 2 1
17 15 13 10 7 3 1 0 1 1 0 0 0 0 0 0 0 0 0 0 0 0 0 0 0 0 0 0 0 0 0 0 0 0 1 2 3 4 5 6 4 3 3
13 11 7 5 5 3 1 0 1 1 0 0 0 0 0 0 0 0 0 0 0 0 0 0 0 0 0 0 0 0 0 0 0 0 1 2 2 3 4 5 5 5 5
11 8 5 3 3 2 1 0 1 1 0 0 0 0 0 0 0 0 0 0 0 0 0 0 0 0 0 0 0 0 0 0 0 0 1 1 1 2 3 4 4 4 5
9 6 3 2 1 1 0 0 0 0 0 0 0 0 0 0 0 0 0 0 0 0 0 0 0 0 0 0 0 0 0 0 0 0 0 0 0 1 1 2 2 3 3
6 3 1 1 0 0 0 0 0 0 0 0 0 0 0 0 0 0 0 0 0 0 0 0 0 0 0 0 0 0 0 0 0 0 0 1 1 1 1 1 1 2 2
2 1 0 0 0 0 0 0 0 0 0 0 0 0 0 0 0 0 0 0 0 0 0 0 0 0 0 0 0 0 0 0 0 0 0 1 1 2 2 2 2 2 2
0 0 0 0 0 0 0 0 0 0 0 0 0 0 0 0 0 0 0 0 0 0 0 0 0 0 0 0 0 0 0 0 0 0 0 0 1 1 2 2 2 2 2
0 0 0 0 0 0 0 0 0 0 0 0 0 0 0 0 0 0 0 0 0 0 0 0 0 0 0 0 0 0 0 0 0 0 0 0 0 0 1 1 1 1 2
0 0 0 0 0 0 0 0 0 0 0 0 0 0 0 0 0 0 0 0 0 0 0 0 0 0 0 0 0 0 0 0 0 0 0 0 0 0 0 0 0 1 2

GEFSSE_con_probscp_090.txt.gz
Probability
0 0 1 2 1 0 1 3 4 3 2 0 0 0 0 0 0 0 0 0 0 0 0 0 0 0 0 0 0 0 0 0 0 0 0 0 0 0 0 0 0 0 0
1 1 2 4 3 2 2 3 4 4 3 1 1 0 0 0 0 0 0 0 0 0 0 0 0 0 0 0 0 0 0 0 0 0 0 0 0 0 0 0 0 0 0
2 2 4 7 6 4 4 5 5 4 3 2 1 0 0 0 0 0 0 0 0 0 0 0 0 0 0 0 0 0 0 0 0 0 0 0 0 0 0 0 0 0 0
2 3 5 8 8 7 7 7 6 4 2 1 1 0 0 0 0 0 0 0 0 0 0 0 1 0 0 0 0 0 0 0 0 0 0 0 0 0 0 0 0 0 0
4 4 6 9 9 10 10 9 7 5 3 1 0 0 0 1 1 1 0 0 0 0 0 0 0 0 0 0 0 0 0 0 0 0 0 0 0 0 0 0 0 0 0
8 7 8 9 11 12 13 10 8 6 5 3 1 0 0 1 2 1 0 0 0 0 0 0 0 0 0 0 0 0 0 0 0 0 0 0 0 0 0 0 0 0 0
16 13 11 11 12 12 12 10 8 7 6 4 1 0 0 1 1 0 0 0 0 0 0 1 1 1 0 0 0 0 0 0 0 0 0 0 0 0 0 0 0 0 0
24 22 18 14 12 11 10 8 7 7 6 4 1 0 0 0 0 0 0 0 1 1 1 1 2 1 0 0 0 0 0 0 0 0 0 0 0 0 0 0 0 0 0
28 27 23 16 11 9 7 6 5 5 4 2 0 0 0 0 0 0 0 0 2 2 1 1 1 1 0 0 0 0 0 0 0 0 0 0 0 0 0 0 0 0 0
23 24 23 18 13 9 6 3 3 3 2 1 0 0 0 0 0 0 0 0 1 1 1 0 0 0 1 1 1 1 0 0 0 0 0 0 0 0 0 0 0 0 0
14 17 19 18 15 10 6 3 2 2 2 1 0 0 0 0 0 0 0 0 1 1 0 0 0 1 2 3 3 3 2 1 0 0 0 0 0 0 0 0 0 0 0
11 13 16 16 14 10 6 2 2 2 2 2 1 0 0 0 0 0 0 0 1 0 0 0 0 2 2 2 3 4 3 2 1 0 0 0 0 0 0 0 0 1 1
8 11 13 12 10 7 3 1 2 2 2 2 1 0 0 0 1 1 0 0 0 0 0 0 0 1 1 1 2 2 2 2 1 1 0 0 0 1 1 1 1 2 2
6 8 9 8 6 4 1 1 2 2 1 1 0 0 0 1 2 1 0 0 0 0 0 0 0 0 0 0 1 1 1 1 2 2 1 0 1 2 1 1 2 3 2
5 5 4 4 3 2 1 0 1 1 0 0 0 0 1 2 2 1 0 0 0 0 0 0 0 0 0 0 0 0 0 1 2 2 1 1 2 3 2 1 2 2 2
5 4 3 2 2 1 0 0 0 0 0 0 0 0 1 2 1 0 0 0 0 0 0 0 0 0 0 0 0 0 0 0 1 1 1 1 3 4 4 3 1 1 1
3 2 2 2 1 0 0 0 0 0 0 0 0 0 1 1 0 0 0 0 0 0 0 0 0 0 0 0 0 0 0 0 0 0 0 1 2 3 4 4 3 2 1
1 2 3 2 1 0 0 0 0 0 0 0 0 0 0 0 0 0 0 0 0 0 0 0 0 0 0 0 0 0 0 0 0 0 0 0 1 2 3 3 4 3 2
3 4 5 3 1 0 0 0 0 0 0 0 0 0 0 0 0 0 0 0 0 0 0 0 0 0 0 0 0 0 0 0 0 0 0 0 0 1 2 2 3 3 2
7 7 6 3 1 0 0 0 0 0 0 0 0 0 0 0 0 0 0 0 0 0 0 0 0 0 0 0 0 0 0 0 0 0 0 0 0 0 1 2 4 4 3
9 7 4 2 0 0 0 0 0 0 0 0 0 0 0 0 0 0 0 0 0 0 0 0 0 0 0 0 0 0 0 0 0 0 0 0 0 0 1 3 5 6 6
7 4 2 0 0 0 0 0 0 0 0 0 0 0 0 0 0 0 0 0 0 0 0 0 0 0 0 0 0 0 0 0 0 0 0 0 0 0 1 3 4 6 6
5 2 0 0 0 0 0 0 0 0 0 0 0 0 0 0 0 0 0 0 0 0 0 0 0 0 0 0 0 0 0 0 0 0 0 0 0 0 1 1 2 2 2
3 2 1 0 0 0 0 0 0 0 0 0 0 0 0 0 0 0 0 0 0 0 0 0 0 0 0 0 0 0 0 0 0 0 0 0 0 0 0 0 1 1 0
3 2 1 0 0 0 0 0 0 0 0 0 0 0 0 0 0 0 0 0 0 0 0 0 0 0 0 0 0 0 0 0 0 0 0 0 0 0 0 0 0 1 1
2 2 1 0 0 0 0 0 0 0 0 0 0 0 0 0 0 0 0 0 0 0 0 0 0 0 0 0 0 0 0 0 0 0 0 0 0 0 0 0 0 1 0

GEFSSE_con_probscp_096.txt.gz
Probability
0 0 0 0 0 1 1 3 4 5 5 4 2 1 0 0 0 0 0 0 0 0 0 0 0 0 0 0 0 0 0 0 0 0 0 0 0 0 0 0 0 0 0
0 0 0 1 1 1 2 4 5 5 4 3 1 0 0 0 0 0 0 0 0 0 0 0 0 0 0 0 0 0 0 0 0 0 0 0 0 0 0 0 0 0 0
1 0 1 3 3 1 1 4 5 3 2 1 0 0 0 0 0 0 0 0 0 0 0 0 0 0 0 0 0 0 0 0 0 0 0 0 0 0 0 0 0 0 0
2 1 2 4 3 1 1 2 2 1 0 0 0 0 0 0 0 0 0 0 0 0 0 0 0 0 0 0 0 0 0 0 0 0 0 0 0 0 0 0 0 0 0
4 3 3 3 3 2 1 1 1 0 0 0 0 0 0 0 0 0 0 0 0 0 0 0 0 0 0 0 0 0 0 0 0 0 0 0 0 0 0 0 0 0 0
4 3 3 4 4 3 1 2 2 2 1 1 1 1 0 0 0 0 0 0 0 0 0 0 0 0 0 0 0 0 0 0 0 0 0 0 0 0 0 0 0 0 0
3 3 4 6 6 4 2 3 3 3 3 2 2 1 0 0 0 0 0 0 0 0 0 0 0 0 0 0 0 0 0 0 0 0 0 0 0 0 0 0 0 0 0
2 3 4 7 7 5 3 3 4 4 3 3 1 0 0 0 0 0 0 0 0 0 0 0 0 0 0 0 0 0 0 0 0 0 0 0 0 0 0 0 0 0 0
2 3 4 5 5 4 3 4 4 3 3 2 1 0 0 0 0 0 0 0 0 0 0 0 0 0 0 0 0 0 0 0 0 0 0 0 0 0 0 0 0 0 0
4 5 4 3 2 2 2 4 4 4 3 1 0 0 0 0 0 0 0 0 0 0 0 0 0 0 0 0 0 0 0 0 0 0 0 0 0 0 0 0 0 0 0
5 6 5 3 2 2 2 3 4 3 3 1 0 0 0 0 0 0 0 0 0 1 0 0 0 0 0 0 0 0 0 0 0 0 0 0 0 0 0 0 0 0 0
6 6 5 3 3 3 2 3 3 4 4 3 1 1 1 1 1 1 0 0 0 0 0 0 0 0 0 0 0 0 0 0 0 0 0 0 0 0 0 0 0 0 0
10 7 4 4 4 4 4 4 4 5 6 5 4 3 4 4 3 2 1 1 0 0 0 1 1 0 0 0 0 0 0 0 0 0 1 0 0 0 0 0 0 0 1
15 10 8 8 7 6 5 5 5 6 7 6 5 4 3 3 3 4 3 2 1 0 1 2 1 0 0 0 0 0 0 0 0 1 2 1 0 0 0 0 0 1 2
19 16 14 13 10 7 6 6 6 6 5 4 4 2 1 1 3 4 4 4 3 2 2 2 1 0 0 0 0 0 0 0 0 0 1 1 1 1 1 0 1 2 2
19 20 19 15 11 8 6 6 7 6 3 2 2 1 0 0 2 3 4 4 4 4 3 2 0 0 0 0 0 0 0 0 0 0 0 1 1 2 1 1 2 3 2
17 20 19 15 12 9 7 7 7 4 1 1 1 1 0 0 1 2 2 3 5 6 5 3 1 0 0 0 0 0 0 0 0 0 0 1 1 1 1 1 2 3 2
14 16 16 13 11 11 9 8 6 2 0 0 1 1 0 0 1 1 1 1 3 5 5 3 1 0 0 0 0 0 0 1 0 0 0 1 1 1 1 2 3 3 1
12 13 14 12 12 13 11 8 4 1 0 0 0 0 0 0 0 0 0 0 1 2 3 3 1 0 0 0 0 0 0 0 0 0 0 0 0 1 3 4 4 2 1
13 13 13 14 15 14 10 6 2 0 0 0 0 0 0 0 0 0 0 0 1 1 1 1 1 0 0 0 0 0 0 0 0 0 0 0 0 0 2 3 3 3 3
14 14 14 15 15 11 7 4 2 1 0 0 0 0 0 0 0 0 0 0 0 0 0 0 0 0 0 0 0 0 0 0 0 0 0 0 0 0 0 1 2 3 4
14 14 16 15 13 9 6 4 3 2 1 0 0 0 0 0 0 0 0 0 0 0 0 0 0 0 0 0 0 0 0 0 0 0 0 0 0 1 1 0 0 2 3
13 14 15 14 11 8 5 3 3 2 1 1 1 1 0 0 0 0 0 0 0 0 0 0 0 0 0 0 0 0 0 0 0 0 0 0 0 1 1 0 0 1 2
10 11 12 11 9 7 5 3 1 1 1 2 2 1 0 0 0 0 0 0 0 0 0 0 0 0 0 0 0 0 0 0 0 0 0 0 0 1 1 0 0 1 2
7 9 11 10 9 8 7 5 2 1 1 2 2 1 0 0 0 0 0 0 0 0 0 0 0 0 0 0 0 0 0 0 0 0 0 0 0 0 0 0 0 0 1
7 10 12 11 10 9 8 7 3 1 1 1 1 0 0 0 0 0 0 0 0 0 0 0 0 0 0 0 0 0 0 0 0 0 0 0 0 0 0 0 0 0 0

GEFSSE_con_probscp_102.txt.gz
Probability
11 9 8 4 0 0 0 0 0 0 0 0 0 0 0 0 0 0 0 0 0 0 0 0 0 0 0 0 0 0 0 0 0 0 0 0 0 0 0 0 0 0 0
17 15 14 8 1 0 0 0 0 0 0 0 0 0 0 0 0 0 0 0 0 0 0 0 0 0 0 0 0 0 0 0 0 0 0 0 0 0 0 0 0 0 0
24 21 17 11 4 1 1 0 0 0 0 0 0 0 0 0 0 0 0 0 0 0 0 0 0 0 0 0 0 0 0 0 0 0 0 0 0 0 0 0 0 0 0
24 23 20 14 7 3 2 1 0 0 0 0 0 0 0 0 0 0 0 0 0 0 0 0 0 0 0 0 0 0 0 0 0 0 0 0 0 0 0 0 0 0 0
26 26 24 18 10 5 3 1 1 0 0 0 0 0 0 0 0 0 0 0 0 0 0 0 0 0 0 0 0 0 0 0 0 0 0 0 0 0 0 0 0 0 0
29 27 25 21 13 6 3 2 1 0 0 0 0 0 0 0 0 0 0 0 0 0 0 0 0 0 0 0 0 0 0 1 1 1 0 0 0 0 0 0 0 0 0
27 25 23 20 14 7 4 3 2 0 0 0 0 0 0 0 0 0 0 0 0 0 0 0 0 0 0 0 0 0 0 1 1 1 0 0 0 0 0 0 0 0 0
25 24 22 18 13 8 4 3 2 0 0 0 0 0 0 0 0 0 0 0 0 0 0 0 0 0 0 0 0 0 0 0 0 0 0 0 0 0 0 0 0 0 0
30 25 19 15 10 7 5 3 2 1 1 0 0 0 0 0 0 0 0 0 0 0 0 0 0 0 0 0 0 0 0 0 0 0 0 0 0 0 0 0 0 0 0
35 26 16 11 8 6 5 4 3 2 2 1 0 0 0 0 0 0 0 0 0 0 0 0 0 0 0 0 0 0 0 0 0 0 1 2 1 0 0 0 0 0 0
40 28 16 11 8 5 4 3 3 3 2 1 0 0 0 0 0 0 1 1 0 0 0 0 0 0 0 0 0 0 0 0 0 0 2 3 2 1 0 0 0 0 0
48 33 22 20 15 9 6 4 4 4 2 1 0 0 1 1 0 1 2 2 1 0 0 0 0 0 0 0 0 0 0 0 0 1 2 2 2 1 0 0 0 0 0
52 42 36 36 30 22 15 10 7 6 5 3 2 2 2 2 2 2 3 3 2 0 0 0 0 0 0 0 0 0 0 0 1 2 2 1 1 1 0 0 0 0 0
56 52 50 52 48 40 31 21 14 9 7 7 7 6 4 3 3 3 4 5 3 1 0 0 1 1 0 0 1 0 0 0 2 2 2 1 0 0 0 0 0 0 0
60 60 61 62 60 55 48 37 24 17 15 13 13 11 6 3 3 4 5 6 4 2 1 1 1 1 1 1 1 0 0 0 1 2 2 2 1 0 0 0 0 0 0
62 64 65 65 64 61 55 45 33 24 21 16 13 11 6 3 2 3 5 6 5 3 2 2 2 2 2 2 1 0 0 0 1 2 2 2 1 0 1 1 1 1 1
61 63 62 60 59 59 54 44 32 24 17 13 10 8 4 2 1 2 3 4 5 4 4 4 3 3 2 1 1 0 0 0 1 1 1 2 1 1 2 2 2 3 4
56 58 58 55 55 56 51 41 30 21 13 10 9 7 4 2 2 2 1 2 4 5 5 5 5 4 2 0 0 0 0 0 0 0 0 1 1 1 2 2 3 4 5
50 52 55 57 56 53 47 38 28 20 13 10 9 6 4 2 2 1 1 0 1 3 4 5 5 4 1 0 0 1 0 0 0 0 0 0 1 2 1 2 5 5 5
47 48 51 55 55 48 40 31 23 17 13 10 7 4 3 2 1 0 0 0 0 2 3 4 4 2 1 0 0 0 0 0 0 0 0 0 0 1 1 2 5 5 3
43 43 44 48 48 42 33 25 19 15 12 9 5 2 1 1 0 0 0 0 0 1 1 1 1 1 0 0 0 0 0 0 0 0 0 0 0 0 0 1 2 2 1
39 37 38 41 40 33 25 19 15 12 10 7 3 1 0 0 0 0 0 0 0 0 0 0 0 0 0 0 0 0 0 0 0 0 0 0 0 0 0 0 0 0 0
34 31 31 34 32 27 21 15 12 9 6 4 2 0 0 0 0 0 0 0 0 0 0 0 0 0 0 0 0 0 0 0 0 0 0 0 0 0 0 0 0 0 0
29 27 27 30 29 25 20 15 10 5 3 2 1 1 0 0 0 0 0 0 0 0 0 0 0 0 0 0 0 0 0 0 0 0 0 0 0 0 0 0 0 0 0
24 25 27 30 30 26 21 16 10 4 2 2 2 3 2 0 0 0 0 1 1 1 1 1 1 0 0 0 0 0 0 0 0 0 0 0 0 0 1 1 1 0 0
21 24 29 32 31 26 21 17 11 5 3 4 4 4 3 1 0 0 1 2 2 2 2 2 2 1 0 0 0 0 0 0 0 0 0 0 0 0 1 2 2 1 0

GEFSSE_con_probscp_108.txt.gz
Probability
0 1 4 4 1 0 0 0 0 0 0 0 0 0 0 0 0 0 0 0 0 0 0 0 0 0 0 0 0 0 0 0 0 0 0 0 0 0 0 0 0 0 0
2 3 6 6 3 1 0 0 0 0 0 0 0 0 0 0 0 0 0 0 0 0 0 0 0 0 0 0 0 0 0 0 0 0 0 0 0 0 0 0 0 0 0
10 9 10 10 6 3 1 1 0 0 0 0 0 0 0 0 0 0 0 0 0 0 0 0 0 0 0 0 0 0 0 0 0 0 0 0 0 0 0 0 0 0 0
20 17 15 13 9 5 3 2 1 0 0 0 0 0 0 0 0 0 0 0 0 0 0 0 0 0 0 0 0 0 0 0 0 0 0 0 0 0 0 0 0 0 0
26 23 21 20 15 9 5 4 2 1 0 0 0 0 0 0 0 0 0 0 0 0 0 0 0 0 0 0 0 0 0 0 0 0 0 0 0 0 0 0 0 0 0
31 27 26 27 22 13 7 4 3 1 0 0 0 0 0 0 0 0 0 0 0 0 0 0 0 0 0 0 0 0 0 0 0 0 0 0 0 0 0 0 0 0 0
39 35 32 32 26 16 9 5 3 2 0 0 0 0 0 0 0 0 0 0 0 0 0 0 0 0 0 0 0 0 0 0 0 0 0 0 0 0 0 0 0 0 0
48 43 38 32 23 15 10 6 4 2 1 0 0 0 0 0 0 0 0 0 0 0 0 0 0 0 0 0 0 0 0 0 0 0 0 0 0 0 0 0 0 0 0
50 47 40 29 19 13 9 6 4 3 1 0 0 0 0 0 0 0 0 0 0 0 0 0 0 0 0 0 0 1 0 0 0 0 0 0 0 0 0 0 0 0 0
47 45 38 27 16 10 7 5 3 3 2 0 0 0 0 0 0 0 0 0 0 0 0 0 0 0 0 0 0 0 0 0 0 0 0 0 0 0 0 0 0 0 0
41 38 33 25 15 9 6 5 4 4 2 0 0 0 0 0 0 0 0 0 0 0 0 0 0 0 0 0 0 0 0 0 0 0 0 0 0 0 0 0 0 0 0
34 31 26 21 16 9 6 6 6 5 2 1 0 0 0 0 0 0 0 0 0 0 0 0 1 0 0 0 0 0 0 0 0 0 0 0 0 0 0 0 0 0 0
31 29 23 18 14 10 7 6 5 4 3 1 0 0 0 0 0 0 0 0 0 0 0 0 0 0 0 0 0 0 0 0 0 0 0 0 0 0 0 0 0 0 0
31 27 21 15 10 8 7 5 3 3 2 1 0 0 0 0 0 0 0 0 0 0 0 0 0 0 0 0 0 0 0 0 0 0 0 0 0 0 0 0 0 0 0
27 25 20 14 8 5 4 3 3 3 2 1 0 0 0 0 0 0 0 0 0 0 0 0 0 0 0 0 0 0 0 0 0 0 0 0 0 0 0 0 0 0 0
29 26 22 17 12 7 4 3 4 3 2 0 0 0 0 0 0 0 0 0 0 0 0 0 0 0 0 0 0 0 0 0 0 0 0 0 0 0 0 0 0 0 0
36 33 29 25 19 13 8 5 4 3 1 0 0 0 0 0 0 0 0 0 0 0 0 0 0 0 0 0 0 0 0 0 0 0 0 0 0 0 0 0 0 0 0
41 38 34 31 26 19 12 8 5 2 1 0 0 0 0 0 0 0 0 0 0 0 0 0 0 0 0 0 0 0 0 0 0 0 0 0 0 0 0 0 0 0 0
40 37 35 33 28 21 15 11 6 2 1 0 0 0 0 0 0 0 0 0 0 0 0 0 0 0 0 0 0 0 0 0 0 0 0 0 0 0 0 0 0 0 0
37 35 33 31 26 19 15 12 7 3 1 0 0 0 0 0 0 0 0 0 0 0 0 0 0 0 0 0 0 0 0 0 0 0 0 0 0 0 0 0 0 0 0
33 31 30 28 22 15 12 12 8 3 1 0 0 0 0 0 0 0 0 0 0 0 0 0 0 0 0 0 0 0 0 0 0 0 0 0 0 0 0 0 0 0 0
28 27 25 23 18 11 10 11 8 4 1 1 1 0 0 0 0 0 0 0 0 0 0 0 0 0 0 0 0 0 0 0 0 0 0 0 0 0 0 0 0 0 0
22 21 19 17 14 11 9 9 8 5 3 2 1 0 0 0 0 0 0 0 0 0 0 0 0 0 0 0 0 0 0 0 0 0 0 0 0 0 0 0 0 0 0
18 18 16 14 11 9 7 7 7 5 2 1 1 0 0 0 0 0 0 0 0 0 0 0 0 0 0 0 0 0 0 0 0 0 0 0 0 0 0 0 0 0 0
15 16 16 13 10 7 5 4 3 2 0 0 0 0 0 0 0 0 0 0 0 0 0 0 0 0 0 0 0 0 0 0 0 0 0 0 0 0 0 0 0 0 0
13 15 16 13 9 7 5 2 1 0 0 0 0 0 0 0 0 0 0 0 0 0 0 0 0 0 0 0 0 0 0 0 0 0 0 0 0 0 0 0 0 0 0

GEFSSE_con_probscp_114.txt.gz
Probability
1 2 1 0 0 0 0 1 2 2 2 1 0 0 0 0 0 0 0 0 0 0 0 0 0 0 0 0 0 0 0 0 0 0 0 0 0 0 0 0 0 0 0
2 3 2 1 0 0 0 0 1 1 1 0 0 0 0 0 0 0 0 0 0 0 0 0 0 0 0 0 0 0 0 0 0 0 0 0 0 0 0 0 0 0 0
5 5 4 4 2 1 0 0 0 0 0 0 0 0 0 0 0 0 0 0 0 0 0 0 0 0 0 0 0 0 0 0 0 0 0 0 0 0 0 0 0 0 0
7 6 5 7 6 4 3 3 2 1 1 1 0 0 0 0 0 0 0 0 0 0 0 0 0 0 0 0 0 0 0 0 0 0 0 0 0 0 0 0 0 0 0
8 7 7 9 10 8 7 7 6 4 3 2 1 1 1 0 0 0 0 0 0 0 0 0 0 0 0 0 0 0 0 0 0 0 0 0 0 0 0 0 0 0 0
11 11 11 12 13 12 11 9 8 5 4 3 3 2 2 1 0 0 0 0 0 0 0 0 0 0 0 0 0 0 0 0 0 0 0 0 0 0 0 0 0 0 0
19 17 17 16 15 14 12 10 7 5 3 3 3 3 2 1 0 0 0 0 0 0 0 0 0 0 0 0 0 0 0 0 0 0 0 0 0 0 0 0 0 0 0
27 25 22 19 17 17 14 9 5 4 3 2 3 2 1 0 0 0 0 0 0 0 0 0 0 0 0 0 0 0 0 0 0 0 0 0 0 0 0 0 0 0 0
32 32 29 24 21 20 16 9 5 3 2 1 2 2 1 0 0 0 0 0 0 0 0 0 0 0 0 0 0 0 0 0 0 0 0 0 0 0 0 0 0 0 0
32 34 33 29 26 23 17 10 5 3 1 1 1 1 0 0 0 0 0 0 0 0 0 0 0 0 0 0 0 0 0 0 0 0 0 0 0 0 0 0 0 0 0
31 32 32 30 28 25 18 10 5 3 2 1 1 1 1 1 1 0 0 0 0 0 0 0 0 0 0 0 0 0 0 0 0 0 0 0 0 0 0 0 0 0 0
33 33 32 30 27 24 19 12 8 5 3 1 1 2 2 2 2 1 0 0 0 0 0 0 0 0 0 0 0 0 0 0 0 0 0 0 0 0 0 0 0 0 0
37 36 34 30 26 24 22 18 12 7 3 1 1 2 3 3 2 1 0 0 0 0 0 0 0 0 0 0 0 0 0 0 0 0 0 0 0 0 0 0 0 0 0
38 37 34 30 26 24 25 21 13 6 3 1 1 2 3 3 2 1 0 0 0 0 0 0 0 0 0 0 0 0 0 0 0 0 0 0 0 0 0 0 0 0 0
36 34 31 28 27 27 25 19 11 6 3 2 1 1 1 2 1 0 0 0 0 0 0 0 0 0 0 0 0 0 0 0 0 0 0 0 0 0 0 0 0 0 0
29 27 24 23 25 26 20 12 7 4 3 2 1 0 0 0 0 0 0 0 0 0 0 0 0 0 0 0 0 0 0 0 0 0 0 0 0 0 0 0 0 0 0
20 19 17 16 19 19 14 7 4 2 1 1 1 0 0 0 0 0 0 0 0 0 0 0 0 0 0 0 0 0 0 0 0 0 0 0 0 0 0 0 0 0 0
12 12 12 11 11 11 9 5 3 1 0 1 1 0 0 0 0 0 0 0 0 0 0 0 0 0 0 0 0 0 0 0 0 0 0 0 0 0 0 0 0 0 0
11 9 9 8 6 6 7 5 2 1 1 1 0 0 0 0 0 0 0 0 0 0 0 0 0 0 0 0 0 0 0 0 0 0 0 0 0 0 0 0 0 0 0
13 11 10 8 7 8 8 4 2 2 1 1 0 0 0 0 0 0 0 0 0 0 0 0 0 0 0 0 0 0 0 0 0 0 0 0 0 0 0 0 0 0 0
14 13 13 13 12 11 9 5 3 2 1 0 0 0 0 0 0 0 0 0 0 0 0 0 0 0 0 0 0 0 0 0 0 0 0 0 0 0 0 0 0 0 0
16 14 14 15 14 11 8 4 3 2 0 0 0 0 0 0 0 0 0 0 0 0 0 0 0 0 0 0 0 0 0 0 0 0 0 0 0 0 0 0 0 0 0
17 15 15 14 12 10 7 4 2 1 0 0 0 0 0 0 0 0 0 0 0 0 0 0 0 0 0 0 0 0 0 0 0 0 0 0 0 0 0 0 0 0 0
17 16 14 12 10 9 7 4 1 0 0 0 1 1 0 0 0 0 0 0 0 0 0 0 0 0 0 0 0 0 0 0 0 0 0 0 0 0 0 0 0 0 0
16 14 12 10 9 8 6 5 2 0 0 0 1 2 1 0 0 0 0 0 0 0 0 0 0 0 0 0 0 0 0 0 0 0 0 0 0 0 0 0 0 0 0
14 13 11 9 8 7 6 4 2 1 0 0 1 2 1 0 0 0 0 0 0 0 0 0 0 0 0 0 0 0 0 0 0 0 0 0 0 0 0 0 0 0 0

GEFSSE_con_probscp_120.txt.gz
Probability
1 2 3 2 1 0 0 1 2 1 0 0 0 0 0 0 0 0 0 0 0 0 0 0 0 0 0 0 0 0 0 0 0 0 0 0 0 0 0 0 0 0 0
2 2 2 2 1 1 1 2 2 1 1 0 0 0 0 0 0 0 0 0 0 0 0 0 0 0 0 0 0 0 0 0 0 0 0 0 0 0 0 0 0 0 0
3 2 2 2 2 1 1 1 3 3 2 1 0 0 0 0 0 0 0 0 0 0 0 0 0 0 0 0 0 0 0 0 0 0 0 0 0 0 0 0 0 0 0
3 3 2 2 2 1 1 2 4 4 3 1 0 0 0 0 0 0 0 0 0 0 0 0 0 0 0 0 0 0 0 0 0 0 0 0 0 0 0 0 0 0 0
4 3 3 3 3 1 1 4 6 5 3 1 0 0 0 0 0 0 0 0 0 0 0 0 0 0 0 0 0 0 0 0 0 0 0 0 0 0 0 0 0 0 0
4 4 5 6 6 4 4 6 6 5 3 1 0 0 0 0 0 0 0 0 0 0 0 0 0 0 0 0 0 0 0 0 0 0 0 0 0 0 0 0 0 0 0
4 5 8 9 8 6 6 7 6 5 3 1 0 0 0 0 0 0 0 0 0 0 0 0 0 0 0 0 0 0 0 0 0 0 0 0 0 0 0 0 0 0 0
4 7 10 10 8 7 7 7 7 6 4 2 1 1 0 0 0 0 0 0 0 0 0 0 0 0 0 0 0 0 0 0 0 0 0 0 0 0 0 0 0 0 0
6 9 12 11 9 7 6 7 8 7 4 3 2 1 0 0 0 0 0 0 0 0 0 0 0 0 0 0 0 0 0 0 0 0 0 0 0 0 0 0 0 0 0
10 12 14 13 12 10 6 6 7 7 4 2 2 1 0 0 1 0 0 0 0 0 0 0 0 0 0 0 0 0 0 0 0 0 0 0 0 0 0 0 0 0 0
16 16 15 16 16 13 9 6 5 4 3 1 1 0 0 0 1 1 1 0 0 0 0 0 0 0 0 0 0 0 0 0 0 0 0 0 0 0 0 0 0 0 0
24 20 17 18 19 18 14 10 6 3 2 1 0 0 0 0 1 2 2 1 0 0 0 0 0 0 0 0 0 0 0 0 0 0 0 0 0 0 0 0 0 0 0
31 26 22 24 25 25 22 16 12 8 4 2 0 0 1 1 1 2 2 1 0 0 0 0 0 0 0 0 0 0 0 0 0 0 0 0 0 0 0 0 0 0 0
36 33 31 32 33 33 31 25 20 14 9 5 3 1 1 2 1 1 1 1 0 0 0 0 0 0 0 0 0 0 0 0 0 0 0 0 0 0 0 0 0 0 0
39 39 40 40 39 41 42 36 27 20 14 10 6 2 1 1 1 0 1 1 0 0 0 0 0 0 0 0 0 0 0 0 0 0 0 0 0 0 0 0 0 0 0
41 44 47 46 44 46 47 42 31 23 17 12 7 3 0 0 0 0 0 1 0 0 0 0 0 0 0 0 0 0 0 0 0 0 0 0 0 0 0 0 0 0 0
43 46 47 44 44 46 47 42 33 23 15 11 8 3 0 0 0 0 0 0 0 0 0 0 0 0 0 0 0 0 0 0 0 0 0 0 0 0 0 0 0 0 0
41 44 40 36 38 42 44 42 34 24 15 12 10 5 2 0 0 0 0 0 0 0 0 0 0 0 0 0 0 0 0 0 0 0 0 0 0 0 0 0 0 0 0
35 36 32 28 32 39 44 44 38 29 20 15 11 7 3 0 0 0 0 0 0 0 0 0 0 0 0 0 0 0 0 0 0 0 0 0 0 0 0 0 0 0 0
27 28 24 23 29 37 41 43 39 31 22 14 9 6 2 0 0 0 0 0 0 0 0 0 0 0 0 0 0 0 0 0 0 0 0 0 0 0 0 0 0 0 0
21 21 19 19 25 31 35 37 35 29 21 14 8 4 2 0 0 0 0 0 0 0 0 0 0 0 0 0 0 0 0 0 0 0 0 0 0 0 0 0 0 0 0
18 17 16 17 20 23 27 32 32 27 21 15 9 6 3 0 0 0 0 0 0 0 0 0 0 0 0 0 0 0 0 0 0 0 0 0 0 0 0 0 0 0 0
16 15 15 16 18 20 24 28 28 25 22 17 11 8 4 1 0 0 0 0 0 0 0 0 0 0 0 0 0 0 0 0 0 0 0 0 0 0 0 0 0 0 0
13 14 16 17 21 24 25 25 22 20 19 16 13 9 4 1 0 0 0 0 0 0 0 0 0 0 0 0 0 0 0 0 0 0 0 0 0 0 0 0 0 0 0
10 11 15 19 24 28 27 22 17 14 14 15 13 10 6 3 1 0 0 0 0 0 0 0 0 0 0 0 0 0 0 0 0 0 0 0 0 0 0 0 0 0 0
8 8 12 19 24 28 25 18 14 12 13 14 13 11 8 4 2 1 0 0 0 0 0 0 0 0 0 0 0 0 0 0 0 0 0 0 0 0 0 0 0 0 0

GEFSSE_con_probscp_126.txt.gz
Probability
7 6 5 4 1 0 0 0 0 0 0 0 0 0 0 0 0 0 0 0 0 0 0 0 0 0 0 0 0 0 0 0 0 0 0 0 0 0 0 0 0 0 0
9 6 6 6 2 0 0 0 0 0 0 0 0 0 0 0 0 0 0 0 0 0 0 0 0 0 0 0 0 0 0 0 0 0 0 0 0 0 0 0 0 0 0
9 6 7 8 4 1 1 0 0 0 0 0 0 0 0 0 0 0 0 0 0 0 0 0 0 0 0 0 0 0 0 0 0 0 0 0 0 0 0 0 0 0 0
8 5 6 7 5 3 2 1 0 0 0 0 0 0 0 0 0 0 0 0 0 0 0 0 0 0 0 0 0 0 0 0 0 0 0 0 0 0 0 0 0 0 0
8 7 7 8 6 4 3 1 0 0 0 0 0 0 0 0 0 0 0 0 0 0 0 0 0 0 0 0 0 0 0 0 0 0 0 0 0 0 0 0 0 0 0
10 10 10 9 7 5 3 1 0 0 0 0 0 0 0 0 0 0 0 0 0 0 0 0 0 0 0 0 0 0 0 0 0 0 0 0 0 0 0 0 0 0 0
13 12 12 12 11 7 4 1 0 0 0 0 0 0 0 0 0 0 0 0 0 0 0 0 0 0 0 0 0 0 0 0 0 0 0 0 0 0 0 0 0 0 0
19 16 15 16 14 9 5 3 2 1 0 0 0 0 0 0 0 0 0 0 0 0 0 0 0 0 0 0 0 0 0 0 0 0 0 0 0 0 0 0 0 0 0
26 22 18 17 15 11 7 5 5 3 1 0 0 0 0 0 0 0 0 0 0 0 0 0 0 0 0 0 0 0 0 0 0 0 0 0 0 0 0 0 0 0 0
32 26 20 19 17 13 8 7 6 5 3 1 0 1 1 1 0 0 0 0 0 0 0 0 0 0 0 0 0 0 0 0 0 0 0 0 0 0 0 0 0 0 0
37 30 23 22 22 15 9 8 8 7 6 3 2 2 2 2 1 0 0 0 0 0 0 0 0 0 0 0 0 0 0 0 0 0 0 0 0 0 0 0 0 0 0
44 34 26 27 26 20 14 12 10 8 7 6 4 3 3 2 1 1 0 0 0 0 0 0 0 0 0 0 0 0 0 0 0 0 0 0 0 0 0 0 0 0 0
49 38 32 34 32 27 23 17 11 7 5 5 4 3 1 1 1 1 2 1 0 0 0 0 0 0 0 0 0 0 0 0 0 0 0 0 0 0 0 0 0 0 0
53 48 47 48 43 39 33 21 10 6 5 4 3 2 1 1 1 2 2 2 1 1 1 0 0 0 0 0 0 0 0 1 1 1 0 0 0 0 0 0 0 0 0
61 60 62 63 58 54 46 31 17 12 9 8 5 3 2 3 3 2 2 1 1 1 1 0 0 0 0 0 0 0 0 1 2 2 1 0 0 0 0 0 0 0 0
68 68 69 68 65 63 56 43 32 24 19 16 12 7 5 6 5 3 1 0 0 1 1 0 0 0 0 0 0 0 0 1 2 2 1 0 0 0 0 0 0 0 0
72 70 67 63 62 63 58 48 41 36 30 25 21 15 9 8 8 3 0 0 0 0 0 0 0 1 1 1 1 1 1 1 1 1 0 0 0 0 0 0 0 0 0
71 70 65 58 56 59 56 49 44 44 41 36 29 21 12 9 7 3 0 0 0 0 0 0 1 2 2 2 2 2 1 2 1 0 0 0 0 0 0 0 0 0 0
69 67 63 56 52 53 53 49 45 46 47 41 33 23 15 11 7 2 1 1 1 0 0 0 1 2 2 2 2 2 2 2 1 0 0 0 0 0 0 0 0 0 0
65 64 61 55 50 48 48 44 41 41 41 37 31 25 18 13 7 3 2 2 2 1 0 0 0 1 1 1 1 1 1 1 0 0 0 0 0 0 0 0 0 0 0
62 61 59 55 50 47 43 38 36 34 33 30 28 27 24 16 7 3 2 3 3 2 0 0 0 0 0 0 0 0 0 0 0 0 0 0 0 0 0 0 0 0 0
60 57 54 51 46 43 39 34 32 32 29 26 26 28 26 18 10 4 2 2 3 3 2 0 0 0 0 0 0 0 0 0 0 0 0 0 0 0 0 0 0 0 0
55 50 46 44 38 33 31 28 28 30 27 24 24 25 23 19 14 8 3 2 4 5 3 1 0 0 0 0 0 0 0 0 0 0 0 0 0 0 0 0 0 0 0
48 43 39 37 32 26 23 23 23 24 23 23 24 25 23 21 18 12 6 4 4 5 3 1 0 0 0 0 0 0 0 0 0 0 0 0 0 0 0 0 0 0 0
42 38 35 33 29 24 20 20 22 22 23 24 26 26 25 22 19 13 8 5 4 3 3 2 1 0 0 0 0 0 0 0 0 0 0 0 0 0 0 0 0 0 0
39 36 32 30 29 26 21 20 23 24 25 26 27 26 25 22 19 14 8 5 4 3 3 3 2 1 0 0 0 0 0 0 0 0 0 0 0 0 0 0 0 0 0

GEFSSE_con_probscp_132.txt.gz
Probability
0 0 0 0 0 0 1 2 3 4 4 3 3 3 2 1 0 0 0 0 0 0 0 0 0 0 0 0 0 0 0 0 0 0 0 0 0 0 0 0 0 0 0
1 0 0 0 0 0 0 1 2 3 3 2 2 2 1 0 0 0 0 0 0 0 0 0 0 0 0 0 0 0 0 0 0 0 0 0 0 0 0 0 0 0 0
2 1 0 1 1 0 0 0 1 1 1 1 1 1 0 0 0 0 0 0 0 0 0 0 0 0 0 0 0 0 0 0 0 0 0 0 0 0 0 0 0 0 0
3 2 2 3 3 1 1 0 0 0 0 0 0 0 0 0 0 0 0 0 0 0 0 0 0 0 0 0 0 0 0 0 0 0 0 0 0 0 0 0 0 0 0
4 3 4 6 6 3 1 0 0 0 0 0 0 0 0 0 0 0 0 0 0 0 0 0 0 0 0 0 0 0 0 0 0 0 0 0 0 0 0 0 0 0 0
4 4 5 8 9 5 2 1 0 0 0 0 0 0 0 0 0 0 0 0 0 0 0 0 0 0 0 0 0 0 0 0 0 0 0 0 0 0 0 0 0 0 0
6 5 7 10 11 8 4 2 1 0 0 0 0 0 0 0 0 0 0 0 0 0 0 0 0 0 0 0 0 0 0 0 0 0 0 0 0 0 0 0 0 0 0
10 9 10 11 10 9 6 3 1 0 0 0 0 0 0 0 0 0 0 0 0 0 0 0 0 0 0 0 0 0 0 0 0 0 0 0 0 0 0 0 0 0 0
12 13 13 10 9 9 8 5 2 0 0 0 0 0 0 0 0 0 0 0 0 0 0 0 0 0 0 0 0 0 0 0 0 0 0 0 0 0 0 0 0 0 0
12 12 12 10 9 9 10 8 5 2 1 0 0 0 0 0 0 0 0 0 0 0 0 0 0 0 0 0 1 1 0 0 0 0 0 0 0 0 0 0 0 0 0
12 10 10 10 9 9 10 9 6 3 2 0 0 0 0 0 0 0 0 0 0 0 0 0 0 0 0 1 2 3 1 0 0 0 0 0 0 0 0 0 0 0 0
15 11 10 10 9 8 8 8 7 5 2 0 0 0 0 0 0 0 0 0 0 0 0 0 0 0 0 1 2 2 1 0 0 0 0 0 0 0 0 0 0 0 0
17 14 11 11 9 8 8 8 9 8 4 1 0 0 0 0 0 0 0 0 0 0 0 0 0 0 0 0 1 1 0 0 0 0 0 0 0 0 0 0 0 0 0
20 16 15 14 12 11 10 10 11 10 6 2 0 0 0 0 0 0 0 0 0 0 0 0 0 0 0 0 0 0 0 0 0 0 0 0 0 0 0 0 0 0 0
23 20 19 18 16 14 12 11 11 10 6 2 0 0 0 0 0 0 0 0 0 0 0 0 0 0 0 0 0 0 0 0 0 0 0 0 0 0 0 0 0 0 0
27 25 23 21 17 14 11 9 10 9 5 2 0 0 0 0 0 0 0 0 0 0 0 0 0 0 0 0 0 0 0 0 0 0 0 0 0 0 0 0 0 0 0
34 31 28 24 19 15 11 8 7 6 4 1 0 1 1 1 1 0 0 0 0 0 0 0 0 0 0 0 0 0 0 0 0 0 0 0 0 0 0 0 0 0 0
41 39 35 30 25 19 13 9 7 6 4 2 1 2 2 2 1 0 0 0 0 0 0 0 0 0 0 0 0 0 0 0 0 0 0 0 0 0 0 0 0 0 0
48 46 42 36 31 24 16 11 8 8 6 4 3 3 3 2 1 0 0 0 0 0 0 0 0 0 0 0 0 0 0 0 0 0 0 0 0 0 0 0 0 0 0
52 50 43 37 33 27 19 12 9 8 7 6 5 4 2 2 2 1 0 0 0 0 0 0 0 0 0 0 0 0 0 0 0 0 0 0 0 0 0 0 0 0 0
50 46 39 34 31 25 18 12 8 7 7 7 6 4 2 3 2 1 0 0 0 0 0 0 0 0 0 0 0 0 0 0 0 0 0 0 0 0 0 0 0 0 0
47 41 34 30 26 21 16 11 8 6 7 7 5 3 2 3 2 1 0 0 0 0 0 0 0 0 0 0 0 0 0 0 0 0 0 0 0 0 0 0 0 0 0
42 37 30 25 21 17 14 11 8 5 5 5 4 2 2 2 2 1 0 0 0 0 0 0 0 0 0 0 0 0 0 0 0 0 0 0 0 0 0 0 0 0 0
35 30 24 22 20 16 13 11 8 4 4 3 2 3 2 1 2 2 1 0 0 0 0 0 0 0 0 0 0 0 0 0 0 0 0 0 0 0 0 0 0 0 0
27 23 19 19 20 16 12 10 7 5 3 2 2 3 1 1 2 3 2 0 0 0 0 0 0 0 0 0 0 0 0 0 0 0 0 0 0 0 0 0 0 0 0
22 19 16 17 18 16 12 9 7 5 2 1 1 2 1 0 1 2 1 0 0 0 0 0 0 0 0 0 0 0 0 0 0 0 0 0 0 0 0 0 0 0 0

GEFSSE_con_probscp_138.txt.gz
Probability
0 0 0 0 1 2 3 4 6 7 7 5 2 0 0 0 0 0 0 0 0 0 0 0 0 0 0 0 0 0 0 0 0 0 0 0 0 0 0 0 0 0 0
0 0 0 0 1 2 3 4 5 6 7 5 1 0 0 0 0 0 0 0 0 0 0 0 0 0 0 0 0 0 0 0 0 0 0 0 0 0 0 0 0 0 0
0 0 0 0 1 3 3 3 4 5 5 3 1 0 0 0 0 0 0 0 0 0 0 0 0 0 0 0 0 0 0 0 0 0 0 0 0 0 0 0 0 0 0
0 0 0 1 2 3 3 3 3 4 4 2 1 0 0 0 0 0 0 0 0 0 0 0 0 0 0 0 0 0 0 0 0 0 0 0 0 0 0 0 0 0 0
1 1 1 2 3 3 2 3 3 3 3 1 0 0 0 0 0 0 0 0 0 0 0 0 0 0 0 0 0 0 0 0 0 0 0 0 0 0 0 0 0 0 0
2 2 3 4 5 4 2 2 3 3 2 1 0 0 0 0 0 0 0 0 0 0 0 0 0 0 0 0 0 0 0 0 0 0 0 0 0 0 0 0 0 0 0
1 2 4 6 7 6 3 1 2 2 2 1 0 0 0 0 0 0 0 0 0 0 0 0 0 0 0 0 0 0 0 0 0 0 0 0 0 0 0 0 0 0 0
1 2 4 6 7 7 4 2 1 1 1 0 0 0 0 0 0 0 0 0 0 0 0 0 0 0 0 0 0 0 0 0 0 0 0 0 0 0 0 0 0 0 0
2 3 4 5 6 6 4 2 1 0 0 0 0 0 0 0 0 0 0 0 0 0 0 0 0 0 0 0 0 0 0 0 0 0 0 0 0 0 0 0 0 0 0
6 6 5 4 4 3 3 2 1 0 0 0 0 0 0 0 0 0 0 0 0 0 0 0 0 0 0 0 0 0 0 0 0 0 0 0 0 0 0 0 0 0 0
10 7 4 3 3 2 1 1 1 1 0 0 0 0 0 0 0 0 0 0 0 0 0 0 0 0 0 0 0 0 0 0 0 0 0 0 0 0 0 0 0 0 0
12 8 4 3 3 3 2 2 2 2 1 0 0 0 0 0 0 0 0 0 0 0 0 0 0 0 0 0 0 0 0 0 0 0 0 0 0 0 0 0 0 0 0
14 11 6 4 6 7 7 6 5 4 3 1 0 0 0 0 0 0 0 0 0 0 0 0 0 0 0 0 0 0 0 0 0 0 0 0 0 0 0 0 0 0 0
16 12 9 8 9 11 11 10 8 7 5 3 1 0 0 0 0 0 0 0 0 0 0 0 0 0 0 0 0 0 0 0 0 0 0 0 0 0 0 0 0 0 0
18 13 11 13 14 14 13 12 10 8 6 5 3 1 0 0 0 0 0 0 0 0 0 0 0 0 0 0 0 0 0 0 0 0 0 0 0 0 0 0 0 0 0
21 16 15 17 17 15 14 12 10 9 8 6 3 1 0 0 0 0 0 0 0 0 0 0 0 0 0 0 0 0 0 0 0 0 0 0 0 0 0 0 0 0 0
22 20 19 19 18 15 12 10 10 9 9 7 3 0 0 0 0 0 0 0 0 0 0 0 0 0 0 0 0 0 0 0 0 0 0 0 0 0 0 0 0 0 0
20 20 20 20 17 14 10 9 8 9 9 7 2 0 0 0 0 0 0 0 0 0 0 0 0 0 0 0 0 0 0 0 0 0 0 0 0 0 0 0 0 0 0
19 19 20 19 16 11 8 6 6 6 6 4 1 0 0 0 0 0 0 0 0 0 0 0 0 0 0 0 0 0 0 0 0 0 0 0 0 0 0 0 0 0 0
21 20 19 18 14 11 8 5 3 2 2 1 0 0 0 0 0 0 0 0 0 0 0 0 0 0 0 0 0 0 0 0 0 0 0 0 0 0 0 0 0 0 0
22 21 19 17 13 10 8 5 3 2 1 0 0 0 0 0 0 0 0 0 0 0 0 0 0 0 0 0 0 0 0 0 0 0 0 0 0 0 0 0 0 0 0
21 19 16 14 11 8 6 4 3 3 2 1 0 0 0 0 0 0 0 0 0 0 0 0 0 0 0 0 0 0 0 0 0 0 0 0 0 0 0 0 0 0 0
23 18 13 11 10 7 5 4 3 3 3 3 1 0 0 0 0 0 0 0 0 0 0 0 0 0 0 0 0 0 0 0 0 0 0 0 0 0 0 0 0 0 0
21 17 12 11 10 9 8 7 5 4 3 2 1 0 0 0 0 0 0 0 0 0 0 0 0 0 0 0 0 0 0 0 0 0 0 0 0 0 0 0 0 0 0
17 15 12 10 9 9 10 9 8 5 2 1 0 0 0 0 0 0 0 0 0 0 0 0 0 0 0 0 0 0 0 0 0 0 0 0 0 0 0 0 0 0 0
15 14 12 9 7 9 11 10 9 6 2 0 0 0 0 0 0 0 0 0 0 0 0 0 0 0 0 0 0 0 0 0 0 0 0 0 0 0 0 0 0 0 0

GEFSSE_con_probscp_144.txt.gz
Probability
0 0 0 0 0 0 1 1 2 1 1 1 0 0 0 0 0 0 0 0 0 0 0 0 0 0 0 0 0 0 0 0 0 0 0 0 0 0 0 0 0 0 0
0 0 0 0 0 0 1 1 1 1 1 1 0 0 0 0 0 0 0 0 0 0 0 0 0 0 0 0 0 0 0 0 0 0 0 0 0 0 0 0 0 0 0
0 0 0 0 0 0 1 1 1 1 1 0 0 0 0 0 0 0 0 0 0 0 0 0 0 0 0 0 0 0 0 0 0 0 0 0 0 0 0 0 0 0 0
0 0 0 0 0 0 0 0 0 0 0 0 0 0 0 0 0 0 0 0 0 0 0 0 0 0 0 0 0 0 0 0 0 0 0 0 0 0 0 0 0 0 0
0 0 0 0 0 0 0 1 1 1 1 0 0 0 0 0 0 0 0 0 0 0 0 0 0 0 0 0 0 0 0 0 0 0 0 0 0 0 0 0 0 0 0
0 0 0 0 0 0 0 2 3 3 2 1 0 0 0 0 0 0 0 0 0 0 0 0 0 0 0 0 0 0 0 0 0 0 0 0 0 0 0 0 0 0 0
0 0 0 0 0 0 0 1 3 3 2 1 0 0 0 0 0 0 0 0 0 0 0 0 0 0 0 0 0 0 0 0 0 0 0 0 0 0 0 0 0 0 0
0 0 0 0 0 0 0 0 1 1 1 0 0 0 0 0 0 0 0 0 0 0 0 0 0 0 0 0 0 0 0 0 0 0 0 0 0 0 0 0 0 0 0
0 0 0 0 0 0 0 0 0 0 0 0 0 0 0 0 0 0 0 0 0 0 0 0 0 0 0 0 0 0 0 0 0 0 0 0 0 0 0 0 0 0 0
0 0 0 0 0 0 0 0 0 0 0 0 0 0 0 0 0 0 0 0 0 0 0 0 0 0 0 0 0 0 0 0 0 0 0 0 0 0 0 0 0 0 0
2 1 0 0 0 0 0 0 0 0 0 0 0 0 0 0 0 0 0 0 0 0 0 0 0 0 0 0 0 0 0 0 0 0 0 0 0 0 0 0 0 0 0
7 4 1 1 1 0 0 1 1 1 0 0 0 0 0 0 0 0 0 0 0 0 0 0 0 0 0 0 0 0 0 0 0 0 0 0 0 0 0 0 0 0 0
12 8 4 4 4 3 2 2 2 2 2 2 1 1 1 1 1 1 0 0 0 0 0 0 0 0 0 0 0 0 0 0 0 0 0 0 0 0 0 0 0 0 0
18 13 9 9 9 8 7 6 5 5 5 6 5 3 2 3 3 2 1 1 0 0 0 0 0 0 0 0 0 0 0 0 0 0 0 0 0 0 0 0 0 0 0
25 21 17 15 15 14 13 12 10 9 9 9 8 5 3 3 4 3 3 1 1 0 0 0 0 0 0 0 0 0 0 0 0 0 0 0 0 0 0 0 0 0 0
30 28 25 22 19 17 16 15 14 12 11 10 9 7 4 3 4 4 3 3 2 1 1 0 0 0 0 0 0 0 0 0 0 0 0 0 0 0 0 0 0 0 0
29 30 29 24 21 18 16 15 14 12 11 11 10 8 5 3 3 4 4 3 2 1 0 0 0 0 0 0 0 0 0 0 0 0 0 0 0 0 0 0 0 0 0
27 28 26 22 20 19 17 16 14 12 12 12 11 9 6 4 3 4 5 4 3 1 0 0 0 0 0 0 0 0 0 0 0 0 0 0 0 0 0 0 0 0 0
29 28 24 20 19 18 18 18 15 13 13 12 11 9 6 3 3 4 5 4 3 1 0 0 0 0 0 0 0 0 0 0 0 0 0 0 0 0 0 0 0 0 0
33 31 25 21 21 21 21 20 16 14 15 14 12 10 6 2 1 2 3 3 2 1 0 0 0 0 0 0 0 0 0 0 0 0 0 0 0 0 0 0 0 0 0
36 33 29 25 25 27 26 24 21 17 17 16 13 10 6 3 1 1 2 1 1 0 0 0 0 0 0 0 0 0 0 0 0 0 0 0 0 0 0 0 0 0 0
41 38 33 29 27 29 29 27 24 20 17 15 12 9 7 6 4 2 1 1 0 0 0 0 0 0 0 0 0 0 0 0 0 0 0 0 0 0 0 0 0 0 0
42 39 33 29 27 26 25 24 22 19 16 14 11 10 10 9 7 5 2 2 1 0 0 0 0 0 0 0 0 0 0 0 0 0 0 0 0 0 0 0 0 0 0
34 31 28 27 26 24 21 20 19 16 14 13 12 12 12 10 7 6 5 4 3 2 1 1 1 1 0 0 0 0 0 0 0 0 0 0 0 0 0 0 0 0 0
23 22 21 24 25 24 21 20 19 15 14 14 13 13 11 9 5 4 5 5 4 3 2 2 2 2 2 1 0 0 0 0 0 0 0 0 0 0 0 0 0 0 0
17 16 18 22 24 24 22 20 19 16 15 14 13 12 9 7 4 2 4 4 4 3 3 3 3 3 3 2 1 0 0 0 0 0 0 0 0 0 0 0 0 0 0

GEFSSE_con_probscp_150.txt.gz
Probability
0 1 1 1 2 2 1 0 0 0 0 0 0 0 0 0 0 0 0 0 0 0 0 0 0 0 0 0 0 0 0 0 0 0 0 0 0 0 0 0 0 0 0
0 0 1 2 2 2 1 0 0 0 0 0 0 0 0 0 0 0 0 0 0 0 0 0 0 0 0 0 0 0 0 0 0 0 0 0 0 0 0 0 0 0 0
0 0 1 1 2 1 1 0 0 0 0 0 0 0 0 0 0 0 0 0 0 0 0 0 0 0 0 0 0 0 0 0 0 0 0 0 0 0 0 0 0 0 0
0 0 0 0 0 0 0 0 0 0 0 0 0 0 0 0 0 0 0 0 0 0 0 0 0 0 0 0 0 0 0 0 0 0 0 0 0 0 0 0 0 0 0
1 0 0 0 0 0 0 0 0 0 0 0 0 0 0 0 0 0 0 0 0 0 0 0 0 0 0 0 0 0 0 0 0 0 0 0 0 0 0 0 0 0 0
1 0 0 0 0 0 0 0 0 0 0 0 0 0 0 0 0 0 0 0 0 0 0 0 0 0 0 0 0 0 0 0 0 0 0 0 0 0 0 0 0 0 0
1 0 0 0 0 0 0 0 0 0 0 0 0 0 0 0 0 0 0 0 0 0 0 0 0 0 0 0 0 0 0 0 0 0 0 0 0 0 0 0 0 0 0
2 1 0 0 0 0 0 0 0 0 0 0 0 0 0 0 0 0 0 0 0 0 0 0 0 0 0 0 0 0 0 0 0 0 0 0 0 0 0 0 0 0 0
5 2 1 1 1 1 1 0 0 0 0 0 0 0 0 0 0 0 0 0 0 0 0 0 0 0 0 0 0 0 0 0 0 0 0 0 0 0 0 0 0 0 0
7 4 1 2 2 1 1 1 0 0 0 0 0 0 0 0 0 0 0 0 0 0 0 0 0 0 0 0 0 0 0 0 0 0 0 0 0 0 0 0 0 0 0
13 7 2 2 3 3 2 2 1 1 1 0 0 0 0 0 0 0 0 0 0 0 0 0 0 0 0 0 0 0 0 0 0 0 0 0 0 0 0 0 0 0 0
19 12 6 5 4 3 3 3 3 3 2 1 0 0 0 0 0 1 1 1 0 0 0 0 0 0 0 0 0 0 0 0 0 0 0 0 0 0 0 0 0 0 0
22 18 16 14 11 7 6 5 4 4 3 2 1 1 1 0 0 2 2 1 0 0 0 0 0 0 0 0 0 0 0 0 0 0 0 0 0 0 0 0 0 0 0
27 24 26 28 23 17 13 8 5 4 4 4 3 3 2 1 1 1 2 1 0 0 0 0 0 0 0 0 0 0 0 0 0 0 0 0 0 0 0 0 0 0 0
36 34 37 41 38 31 24 17 10 7 6 8 8 6 4 2 2 2 2 1 0 0 0 0 0 0 0 0 0 0 0 0 0 0 0 0 0 0 0 0 0 0 0
44 45 47 50 48 42 34 26 18 10 10 13 14 11 7 6 6 6 4 3 1 1 1 0 0 0 0 0 0 0 0 0 0 0 0 0 0 0 0 0 0 0 0
52 53 53 52 51 46 37 27 19 13 14 19 22 19 12 10 12 11 8 5 4 4 4 2 1 0 0 0 0 0 0 1 0 0 0 0 0 0 0 0 0 0 0
61 60 57 52 50 45 36 25 18 16 20 24 28 26 18 14 15 14 10 9 8 8 8 5 1 0 0 0 0 0 0 0 0 0 0 0 0 0 0 0 0 0 0
70 67 61 55 52 46 37 28 22 22 26 28 29 28 22 17 15 13 12 12 11 9 8 5 2 1 0 0 0 0 0 0 0 0 0 0 0 0 0 0 0 0 0
74 72 67 62 58 52 43 34 30 30 30 29 29 28 24 20 16 12 13 15 12 8 7 6 4 2 2 1 0 0 0 0 0 0 0 0 0 0 0 0 0 0 0
79 79 75 70 67 60 51 43 39 36 33 30 28 27 24 20 17 12 12 16 14 9 9 9 7 4 2 1 0 0 0 0 0 0 0 0 0 0 0 1 1 0 0
82 82 78 73 70 64 57 50 44 38 34 31 30 28 24 20 17 12 12 16 16 13 12 12 10 6 2 1 0 0 0 0 0 0 0 0 0 0 0 0 1 1 1
79 76 70 68 66 61 57 52 45 38 34 33 34 33 28 23 18 16 16 18 18 16 16 16 13 8 4 2 2 1 0 0 0 0 0 0 0 0 0 0 0 0 0
70 67 63 62 60 57 53 51 46 38 34 35 38 37 33 28 22 21 22 22 20 18 19 19 15 10 7 4 2 2 1 1 0 0 0 0 0 0 0 0 0 0 0
60 58 60 61 58 53 48 46 44 39 34 33 36 37 35 30 25 23 25 26 24 23 22 22 18 13 8 5 2 3 3 2 1 1 0 0 0 0 0 0 0 0 0
54 54 57 61 58 50 45 42 40 38 34 30 31 33 32 29 24 21 24 28 28 25 24 24 20 14 9 5 3 3 3 3 2 2 1 0 0 0 0 1 1 1 0

GEFSSE_con_probscp_156.txt.gz
Probability
0 0 0 0 0 0 0 0 0 0 1 2 2 2 1 0 0 0 0 0 0 0 0 0 0 0 0 0 0 0 0 0 0 0 0 0 0 0 0 0 0 0 0
0 0 0 0 0 0 0 0 0 0 0 1 1 1 0 0 0 0 0 0 0 0 0 0 0 0 0 0 0 0 0 0 0 0 0 0 0 0 0 0 0 0 0
0 0 0 0 0 0 0 0 0 0 0 0 0 0 0 0 0 0 0 0 0 0 0 0 0 0 0 0 0 0 0 0 0 0 0 0 0 0 0 0 0 0 0
1 1 1 0 0 0 0 0 0 0 0 0 0 0 0 0 0 0 0 0 0 0 0 0 0 0 0 0 0 0 0 0 0 0 0 0 0 0 0 0 0 0 0
2 2 1 0 0 0 0 0 0 0 0 0 0 0 0 0 0 0 0 0 0 0 0 0 0 0 0 0 0 0 0 0 0 0 0 0 0 0 0 0 0 0 0
1 2 1 0 0 0 0 0 0 0 0 0 0 0 0 0 0 0 0 0 0 0 0 0 0 0 0 0 0 0 0 0 0 0 0 0 0 0 0 0 0 0 0
0 0 0 0 0 0 0 0 0 0 0 0 0 0 0 0 0 0 0 0 0 0 0 0 0 0 0 0 0 0 0 0 0 0 0 0 0 0 0 0 0 0 0
0 0 0 0 0 0 1 1 1 0 0 0 0 0 0 0 0 0 0 0 0 0 0 0 0 0 0 0 0 0 0 0 0 0 0 0 0 0 0 0 0 0 0
0 0 0 0 0 0 2 3 2 1 1 0 0 0 0 0 0 0 0 0 0 0 0 0 0 0 0 0 0 0 0 0 0 0 0 0 0 0 0 0 0 0 0
0 0 0 0 0 0 1 2 3 3 3 1 0 0 0 0 0 0 0 0 0 0 0 0 0 0 0 0 0 0 0 0 0 0 0 0 0 0 0 0 0 0 0
1 1 0 0 0 0 0 1 1 3 3 2 0 0 0 0 0 0 0 0 0 0 0 0 0 0 0 0 0 0 0 0 0 0 0 0 0 0 0 0 0 0 0
4 3 1 0 0 0 0 0 1 2 3 3 1 1 1 1 0 0 0 0 0 0 0 0 0 0 0 0 0 0 0 0 0 0 0 0 0 0 0 0 0 0 0
8 5 2 1 0 0 1 1 1 1 1 2 2 1 2 1 0 0 0 0 0 0 0 0 0 0 0 0 0 0 0 0 0 0 0 0 0 0 0 0 0 0 0
11 6 2 1 1 1 1 2 1 0 0 1 1 1 1 1 0 0 0 0 0 0 0 0 0 0 0 0 0 0 0 0 0 0 0 0 0 0 0 0 0 0 0
13 8 4 2 2 2 3 3 2 0 0 0 0 0 0 0 0 0 0 0 0 0 0 0 0 0 0 0 0 0 0 0 0 0 0 0 0 0 0 0 0 0 0
19 15 10 8 7 6 6 4 2 0 0 0 0 0 0 1 1 0 0 0 0 0 0 0 0 0 0 0 0 0 0 0 0 0 0 0 0 0 0 0 0 0 0
31 28 23 19 14 11 9 4 1 1 1 1 0 0 1 2 2 1 1 1 0 0 0 0 0 0 0 0 0 0 0 0 0 0 0 0 0 0 0 0 0 0 0
44 41 36 29 21 15 10 5 2 2 2 2 1 0 1 2 3 3 2 2 1 0 0 0 0 0 0 0 0 0 0 0 0 0 0 0 0 0 0 0 0 0 0
51 48 42 34 25 16 11 7 4 2 2 2 1 0 1 2 2 2 2 2 1 0 0 0 0 0 0 0 0 0 0 0 0 0 0 0 0 0 0 0 0 0 0
50 46 42 35 28 19 12 8 5 2 2 2 1 0 0 1 1 1 1 1 0 0 0 0 0 0 0 0 0 0 0 0 0 0 0 0 0 0 0 0 0 0 0
45 43 41 37 31 23 15 9 6 3 1 1 1 0 0 2 2 1 0 0 0 0 0 0 0 0 0 0 0 0 0 0 0 0 0 0 0 0 0 0 0 0 0
45 44 40 37 31 22 14 8 5 4 2 1 0 0 0 2 4 2 0 0 0 0 0 0 0 0 0 0 0 0 0 0 0 0 0 0 0 0 0 0 0 0 0
44 43 37 31 27 20 13 8 5 4 3 1 0 1 1 3 5 4 2 1 0 0 1 0 0 0 0 0 0 0 0 0 0 0 0 0 0 0 0 0 0 0 0
40 39 34 29 25 20 14 8 4 3 3 1 0 2 3 4 6 7 6 4 2 1 1 0 0 0 0 0 0 0 0 0 0 0 0 0 0 0 0 0 0 0 0
37 33 30 27 24 20 15 8 3 1 1 0 0 1 2 4 7 9 8 5 3 1 0 0 0 0 0 0 0 0 0 0 0 0 0 0 0 0 0 0 0 0 0
33 29 26 25 23 18 13 8 2 0 0 0 0 0 1 3 7 10 9 6 2 1 0 0 0 0 0 0 0 0 0 0 0 0 0 0 0 0 0 0 0 0 0

GEFSSE_con_probscp_162.txt.gz
Probability
0 0 0 0 0 0 1 1 1 0 1 2 1 0 0 0 0 0 0 0 0 0 0 0 0 0 0 0 0 0 0 0 0 0 0 0 0 0 0 0 0 0 0
0 0 0 0 0 0 0 1 1 0 0 1 0 0 0 0 0 0 0 0 0 0 0 0 0 0 0 0 0 0 0 0 0 0 0 0 0 0 0 0 0 0 0
0 0 0 0 0 0 0 0 0 0 0 0 0 0 0 0 0 0 0 0 0 0 0 0 0 0 0 0 0 0 0 0 0 0 0 0 0 0 0 0 0 0 0
0 0 0 0 0 0 0 0 0 0 0 0 0 0 0 0 0 0 0 0 0 0 0 0 0 0 0 0 0 0 0 0 0 0 0 0 0 0 0 0 0 0 0
0 0 0 0 0 0 0 0 0 0 0 0 0 0 0 0 0 0 0 0 0 0 0 0 0 0 0 0 0 0 0 0 0 0 0 0 0 0 0 0 0 0 0
0 0 0 0 0 0 0 0 0 0 0 0 0 0 0 0 0 0 0 0 0 0 0 0 0 0 0 0 0 0 0 0 0 0 0 0 0 0 0 0 0 0 0
0 0 0 0 0 0 0 0 0 0 0 0 0 1 1 0 0 0 0 0 0 0 0 0 0 0 0 0 0 0 0 0 0 0 0 0 0 0 0 0 0 0 0
0 0 0 0 0 0 0 0 0 0 0 0 0 1 1 1 1 0 0 0 0 0 0 0 0 0 0 0 0 0 0 0 0 0 0 0 0 0 0 0 0 0 0
0 0 0 0 0 0 0 0 0 0 0 0 0 1 1 2 2 1 0 0 0 0 0 0 0 0 0 0 0 0 0 0 0 0 0 0 0 0 0 0 0 0 0
0 0 0 1 1 0 0 0 0 0 0 0 0 0 0 1 2 2 1 0 0 0 0 0 0 0 0 0 0 0 0 0 0 0 0 0 0 0 0 0 0 0 0
0 0 0 1 1 0 0 0 0 0 0 0 0 0 0 1 2 3 2 1 0 0 0 0 0 0 0 0 0 0 0 0 0 0 0 0 0 0 0 0 0 0 0
0 0 0 1 1 0 0 0 0 0 0 0 0 0 0 1 2 3 3 1 1 0 0 0 0 0 0 0 0 0 0 0 0 0 0 0 0 0 0 0 0 0 0
0 0 0 0 0 0 1 1 1 0 0 0 0 0 0 1 2 3 3 3 2 1 0 0 0 0 0 0 0 0 0 0 0 0 0 0 0 0 0 0 0 0 0
0 0 0 0 0 0 1 2 1 0 0 0 0 0 0 0 1 3 3 3 3 1 0 0 0 0 0 0 0 0 0 0 0 0 0 0 0 0 0 0 0 0 0
0 1 1 1 0 0 1 1 1 0 0 0 0 0 0 0 1 3 3 3 2 2 1 0 0 0 0 0 0 0 0 0 0 0 0 0 0 0 0 0 0 0 0
1 3 4 3 2 0 0 0 0 0 0 0 0 0 0 0 2 3 3 1 1 2 1 0 0 0 0 0 0 0 0 0 0 0 0 0 0 0 0 0 0 0 0
3 5 7 7 5 2 1 0 0 0 0 0 0 0 0 0 1 2 2 1 1 1 1 0 0 0 0 0 0 0 0 0 0 0 0 0 0 0 0 0 0 0 0
7 7 8 8 6 4 2 1 0 0 0 0 0 0 0 0 0 1 1 0 0 0 0 0 0 0 0 0 0 0 0 0 0 0 0 0 0 0 0 0 0 0 0
9 10 9 8 5 3 2 1 0 0 0 0 0 0 0 0 0 0 0 0 0 0 0 0 0 0 0 0 0 0 0 0 0 0 0 0 0 0 0 0 0 0 0
9 9 9 7 4 2 1 0 0 0 0 0 0 0 0 0 0 0 0 0 0 0 0 0 0 0 0 0 0 0 0 0 0 0 0 0 0 0 0 0 0 0 0
11 10 9 7 4 1 0 0 0 0 0 0 0 0 0 0 0 0 0 0 0 0 0 0 0 0 0 0 0 0 0 0 0 0 0 0 0 0 0 0 0 0 0
14 13 12 8 5 2 0 0 0 0 0 0 0 0 0 0 0 0 0 0 0 0 0 0 0 0 0 0 0 0 0 0 0 0 0 0 0 0 0 0 0 0 0
16 14 12 9 6 3 1 0 1 1 1 0 0 0 0 0 0 1 1 0 0 0 0 0 0 0 0 0 0 0 0 0 0 0 0 0 0 0 0 0 0 0 0
17 13 9 8 6 3 1 0 1 2 2 1 0 0 0 0 0 1 1 1 1 1 0 0 0 0 0 0 0 0 0 0 0 0 0 0 0 0 0 0 0 0 0
16 12 7 7 6 3 1 0 1 2 2 1 0 0 0 0 0 1 1 2 2 2 1 1 0 0 0 0 0 0 0 0 0 0 0 0 0 0 0 0 0 0 0
14 11 7 7 7 5 2 1 0 1 1 0 0 0 0 0 0 0 0 1 3 3 2 2 1 0 0 0 0 0 0 0 0 0 0 0 0 0 0 0 0 0 0

GEFSSE_con_probscp_168.txt.gz
Probability
0 0 0 0 0 0 0 0 0 0 0 0 0 0 0 0 0 0 0 0 0 0 0 0 0 0 0 0 0 0 0 0 0 0 0 0 0 0 0 0 0 0 0
0 0 0 0 0 0 0 0 0 0 0 0 0 0 0 0 0 0 0 0 0 0 0 0 0 0 0 0 0 0 0 0 0 0 0 0 0 0 0 0 0 0 0
0 0 0 0 0 0 0 0 0 0 0 0 0 0 0 0 0 0 0 0 0 0 0 0 0 0 0 0 0 0 0 0 0 0 0 0 0 0 0 0 0 0 0
0 0 0 0 0 0 0 0 0 0 0 0 0 0 0 0 0 0 0 0 0 0 0 0 0 0 0 0 0 0 0 0 0 0 0 0 0 0 0 0 0 0 0
0 0 0 0 0 0 0 0 0 0 0 0 0 0 0 0 0 0 0 0 0 0 0 0 0 0 0 0 0 0 0 0 0 0 0 0 0 0 0 0 0 0 0
0 0 0 0 0 0 0 0 0 0 0 0 0 0 0 0 0 0 0 0 0 0 0 0 0 0 0 0 0 0 0 0 0 0 0 0 0 0 0 0 0 0 0
0 0 0 0 0 0 0 0 0 0 0 0 0 0 0 0 0 0 0 0 0 0 0 0 0 0 0 0 0 0 0 0 0 0 0 0 0 0 0 0 0 0 0
0 0 0 0 0 0 0 0 0 0 0 0 0 0 0 0 0 0 0 0 0 0 0 0 0 0 0 0 0 0 0 0 0 0 0 0 0 0 0 0 0 0 0
0 0 0 0 0 0 0 0 0 0 0 0 0 0 0 0 0 0 0 0 0 0 0 0 0 0 0 0 0 0 0 0 0 0 0 0 0 0 0 0 0 0 0
0 0 0 0 0 0 0 0 0 1 1 0 0 0 0 0 0 0 0 0 0 0 0 0 0 0 0 0 0 0 0 0 0 0 0 0 0 0 0 0 0 0 0
0 0 0 0 0 0 0 0 0 1 1 0 0 0 0 0 0 0 0 0 0 0 0 0 0 0 0 0 0 0 0 0 0 0 0 0 0 0 0 0 0 0 0
0 0 0 0 0 0 0 0 0 1 1 0 0 0 0 0 0 0 0 0 0 0 0 0 0 0 0 0 0 0 0 0 0 0 0 0 0 0 0 0 0 0 0
0 0 0 0 0 0 0 0 0 0 0 0 0 0 0 0 0 0 0 1 1 1 0 0 0 0 0 0 0 0 0 0 0 0 0 0 0 0 0 0 0 0 0
0 0 0 0 0 1 1 1 0 0 0 0 0 0 0 0 0 0 0 1 2 2 1 0 0 0 0 0 0 0 0 0 0 0 0 0 0 0 0 0 0 0 0
0 0 0 0 1 2 2 2 1 0 0 1 1 1 0 0 0 0 0 1 1 2 1 1 1 0 0 0 0 0 0 0 0 0 0 0 0 0 0 0 0 0 0
0 0 1 2 2 2 2 2 1 0 0 1 2 1 1 0 0 0 1 1 1 2 3 2 2 1 0 0 0 0 0 0 0 0 0 0 0 0 0 0 0 0 0
0 1 3 4 3 1 2 2 1 0 0 1 2 2 1 0 0 0 1 1 1 2 3 3 2 1 0 0 0 0 0 0 0 0 0 0 0 0 0 0 0 0 0
3 5 7 5 3 2 3 3 2 0 0 1 2 3 1 0 0 0 0 0 1 2 3 3 2 1 0 0 0 0 0 0 0 0 0 0 0 0 0 0 0 0 0
9 11 11 7 5 4 5 4 2 1 0 1 2 2 1 0 0 0 0 0 1 2 3 3 2 1 0 0 0 0 0 0 0 0 0 0 0 0 0 0 0 0 0
12 14 13 11 10 10 9 7 5 2 1 1 1 1 0 0 0 0 0 0 0 1 2 3 3 1 1 1 1 0 0 0 0 0 0 0 0 0 0 0 0 0 0
15 17 17 16 15 15 14 12 9 5 3 3 1 0 0 0 0 0 0 0 1 3 3 3 4 3 2 2 2 1 0 0 0 0 0 0 0 0 0 0 0 0 0
21 21 20 19 18 17 17 16 12 6 3 2 2 0 0 0 1 1 0 1 4 7 7 5 5 4 3 3 2 1 0 0 0 0 0 0 0 1 1 0 0 0 0
27 25 22 21 19 18 18 17 13 6 2 1 1 1 0 0 1 2 2 3 7 10 9 7 6 5 4 4 3 2 2 1 0 0 0 0 1 1 2 1 0 0 0
26 25 23 22 20 19 17 16 12 7 3 1 1 1 0 0 1 3 4 5 6 7 8 7 6 6 6 5 5 5 4 2 0 0 1 1 1 2 2 1 1 1 0
22 21 22 21 20 18 16 13 10 6 3 1 0 1 2 2 2 3 6 6 5 5 6 7 8 7 6 6 7 8 7 5 3 2 2 3 3 3 3 3 3 2 1
20 19 20 21 20 17 15 10 7 4 2 0 0 1 4 5 4 4 6 7 6 5 6 9 9 6 5 7 9 10 10 7 5 5 4 3 3 3 4 5 4 2 1

GEFSSE_con_probscp_174.txt.gz
Probability
0 0 0 0 0 0 0 0 0 0 0 0 0 0 0 0 0 0 0 0 0 0 0 0 0 0 0 0 0 0 0 0 0 0 0 0 0 0 0 0 0 0 0
0 0 0 0 0 0 0 0 0 0 0 0 0 0 0 0 0 0 0 0 0 0 0 0 0 0 0 0 0 0 0 0 0 0 0 0 0 0 0 0 0 0 0
0 0 0 0 0 0 0 0 0 0 0 0 0 0 0 0 0 0 0 0 0 0 0 0 0 0 0 0 0 0 0 0 0 0 0 0 0 0 0 0 0 0 0
1 0 0 0 0 0 0 0 0 0 0 0 0 0 0 0 0 0 0 0 0 0 0 0 0 0 0 0 0 0 0 0 0 0 0 0 0 0 0 0 0 0 0
2 1 0 0 0 0 0 0 0 0 0 0 0 0 0 0 0 0 0 0 0 0 0 0 0 0 0 0 0 0 0 0 0 0 0 0 0 0 0 0 0 0 0
2 1 0 0 0 0 0 0 0 0 0 0 0 0 0 0 0 0 0 0 0 0 0 0 0 0 0 0 0 0 0 0 0 0 0 0 0 0 0 0 0 0 0
3 2 1 0 0 0 0 0 0 0 0 0 0 0 0 0 0 0 0 0 0 0 0 0 0 0 0 0 0 0 0 0 0 0 0 0 0 0 0 0 0 0 0
3 2 1 0 0 0 0 0 0 0 0 0 0 0 0 0 0 0 0 0 0 0 0 0 0 0 0 0 0 0 0 0 0 0 1 0 0 0 0 0 0 0 0
3 2 1 1 1 1 1 1 1 0 0 0 0 0 0 0 0 0 0 0 0 0 0 0 0 0 0 0 0 0 0 0 0 0 0 0 0 0 0 0 0 0 0
3 2 2 2 2 3 3 2 2 1 1 2 1 0 0 0 0 0 0 0 0 0 0 0 0 0 0 0 0 0 0 0 0 0 0 0 0 0 0 0 0 0 0
3 3 3 3 3 4 4 3 2 2 2 3 2 1 0 0 0 0 0 0 0 0 0 0 0 0 0 0 0 0 0 0 0 0 0 0 0 0 0 0 0 0 0
3 3 3 3 3 4 5 3 1 1 1 2 2 2 1 0 0 0 1 1 1 0 0 0 0 0 0 0 0 0 0 0 0 0 0 0 0 0 0 0 0 0 0
3 3 4 4 4 5 5 3 1 0 1 1 1 1 1 0 0 0 1 2 2 1 0 0 0 0 0 0 0 0 0 0 0 0 0 0 0 0 0 0 0 0 0
4 4 6 8 7 7 6 3 1 1 2 1 1 0 0 0 0 0 1 2 2 1 1 1 0 0 0 0 0 0 0 0 0 0 0 0 0 0 0 0 0 0 0
8 7 9 11 11 11 9 6 3 2 3 3 1 0 0 0 0 0 0 1 1 1 2 1 0 0 0 0 0 0 0 0 0 0 0 0 0 0 0 0 0 0 0
13 14 15 15 15 14 12 9 6 3 2 3 2 1 0 0 0 0 0 0 0 1 2 2 1 0 0 0 0 0 0 0 0 0 0 0 0 0 0 0 0 0 0
22 23 22 20 20 19 15 10 6 4 3 3 3 3 2 1 1 0 0 0 0 1 2 2 1 0 0 0 0 0 0 0 1 1 0 1 1 0 0 0 0 0 0
32 32 28 24 25 25 18 13 9 6 5 4 4 4 4 3 2 1 0 0 0 1 2 2 1 0 0 0 0 0 0 0 1 1 1 1 1 1 1 0 0 0 0
43 41 35 30 30 28 22 17 13 8 6 6 5 5 6 6 4 3 1 1 2 2 3 3 1 1 1 1 0 0 0 1 1 1 1 1 1 2 2 1 1 0 0
50 47 41 37 33 29 24 20 15 11 9 8 6 6 8 7 5 3 2 3 4 4 4 4 4 3 2 2 1 1 1 2 2 3 2 1 0 1 3 4 3 2 1
53 50 46 42 37 30 26 23 19 16 13 10 9 11 11 8 5 3 2 4 5 5 5 7 7 5 4 3 3 2 2 2 3 4 4 3 2 2 4 7 8 7 6
57 52 47 43 39 33 29 26 23 20 17 13 13 14 12 8 4 3 3 5 7 8 9 11 11 8 5 4 4 4 3 2 2 3 4 5 5 5 6 8 10 11 10
60 55 47 44 41 36 33 30 26 23 20 16 14 15 13 8 5 4 5 7 9 12 13 14 14 11 7 6 7 8 6 4 3 2 3 4 6 7 7 7 9 11 11
60 57 52 49 46 40 36 35 31 27 22 17 14 13 13 10 7 6 7 9 12 14 15 15 15 14 12 10 10 10 10 8 6 4 2 3 5 7 7 7 7 9 9
56 57 54 52 49 44 39 37 35 31 24 17 13 13 13 12 10 9 10 11 12 13 14 15 16 16 16 14 12 11 11 10 9 6 4 3 5 7 8 7 7 8 9
51 54 53 51 50 46 41 38 35 31 25 18 15 15 15 13 12 11 12 12 12 12 13 14 17 19 18 15 13 12 11 10 9 8 5 4 4 6 8 7 6 8 10

GEFSSE_con_probscp_180.txt.gz
Probability
0 0 0 0 0 0 0 0 0 0 0 0 0 0 0 0 0 0 0 0 0 0 0 0 0 0 0 0 0 0 0 0 0 0 0 0 0 0 0 0 0 0 0
0 0 0 0 0 0 0 0 0 0 0 0 0 0 0 0 0 0 0 0 0 0 0 0 0 0 0 0 0 0 0 0 0 0 0 0 0 0 0 0 0 0 0
0 0 0 0 0 0 0 0 0 0 0 0 0 0 0 0 0 0 0 0 0 0 0 0 0 0 0 0 0 0 0 0 0 0 0 0 0 0 0 0 0 0 0
0 0 0 1 0 0 0 0 0 0 0 0 0 0 0 0 0 0 0 0 0 0 0 0 0 0 0 0 0 0 0 0 0 0 0 0 0 0 0 0 0 0 0
0 0 0 1 1 1 1 1 0 0 0 0 0 0 0 0 0 0 0 0 0 0 0 0 0 0 0 0 0 0 0 0 0 0 0 0 0 0 0 0 0 0 0
0 0 1 2 2 2 2 2 1 0 0 0 0 0 0 0 0 0 0 0 0 0 0 0 0 0 0 0 0 0 0 0 0 0 0 0 0 0 0 0 0 0 0
0 0 1 2 3 3 3 2 1 0 0 0 0 0 0 0 0 0 0 0 0 0 0 0 0 0 0 0 0 0 0 0 0 0 0 0 0 0 0 0 0 0 0
0 0 1 1 2 3 3 1 0 0 0 0 0 0 0 0 0 0 0 0 0 0 0 0 0 0 0 0 0 0 0 0 0 0 0 0 0 0 0 0 0 0 0
1 1 1 1 1 2 2 1 0 0 0 0 0 0 0 0 0 0 0 0 0 0 0 0 0 0 0 0 0 0 0 0 0 0 0 0 0 0 0 0 0 0 0
2 3 2 1 0 1 1 0 0 0 0 0 0 0 0 0 0 0 0 0 0 0 0 0 0 0 0 0 0 0 0 0 0 0 0 0 0 0 0 0 0 0 0
3 3 3 2 1 0 0 0 0 0 0 0 0 0 0 0 0 0 0 0 0 0 0 0 0 0 0 0 0 0 0 0 0 0 0 0 0 0 0 0 0 0 0
3 3 2 1 1 0 0 0 0 0 0 0 0 0 0 0 0 0 0 0 0 0 0 0 0 0 0 0 0 0 0 0 0 0 0 0 0 0 0 0 0 0 0
3 2 1 0 0 0 0 0 0 0 0 0 0 0 0 0 0 0 0 0 0 0 0 0 0 0 0 0 0 0 0 0 0 0 0 0 0 0 0 0 0 0 0
4 3 1 0 0 0 0 0 0 0 0 0 0 0 0 0 0 0 0 0 0 0 0 0 0 0 0 0 0 0 0 0 0 0 0 0 0 0 0 0 0 0 0
7 5 2 1 1 1 1 0 0 0 0 0 0 0 0 0 0 0 0 0 0 0 0 0 0 0 0 0 0 0 0 0 0 0 0 0 0 0 0 0 0 0 0
12 9 6 4 3 3 2 1 0 1 1 0 0 0 0 0 0 0 0 0 0 0 0 0 0 0 0 0 0 0 0 0 0 0 0 0 0 0 0 0 0 0 0
17 15 12 10 8 6 4 2 1 1 1 0 0 0 0 0 0 0 0 0 0 0 0 0 0 0 0 0 0 0 0 0 0 0 0 0 0 0 0 0 0 0 0
21 19 17 16 12 7 5 4 2 1 0 0 0 0 0 0 0 0 0 0 0 0 0 0 0 0 0 0 0 0 0 0 0 0 0 0 0 0 0 0 1 1 0
22 21 20 18 12 8 6 5 4 1 0 0 0 0 0 0 0 0 0 0 0 0 0 0 0 0 0 0 0 0 0 0 0 0 0 0 0 0 0 0 1 1 1
23 22 21 17 11 8 7 6 5 3 1 0 0 0 0 0 0 1 1 0 0 0 0 0 0 0 0 0 0 0 0 0 0 0 0 0 0 0 0 0 1 1 1
26 24 20 16 12 10 10 8 7 4 1 0 0 0 0 1 1 1 1 1 0 0 0 0 0 0 0 0 0 0 0 0 0 0 0 0 0 0 0 1 1 0 1
28 24 20 16 14 13 13 10 8 4 2 1 0 0 0 0 0 1 1 1 1 1 1 0 0 0 0 0 0 0 0 0 0 0 0 0 0 0 1 2 1 0 0
29 24 20 16 15 15 13 10 7 5 4 3 2 0 0 0 0 0 0 1 1 2 2 1 0 0 0 0 0 0 0 0 0 0 0 0 0 0 1 1 1 0 0
32 26 20 17 15 14 11 9 7 6 5 4 2 0 0 0 0 0 0 1 2 2 2 1 0 0 0 0 0 0 0 0 0 0 0 0 0 0 0 0 0 0 1
33 27 20 16 14 12 9 7 7 6 5 3 1 0 0 0 0 0 0 1 1 1 1 0 0 0 0 0 0 0 0 0 0 0 0 0 0 0 0 0 0 0 1
33 28 20 15 12 10 8 7 6 6 4 2 1 0 0 0 0 0 0 0 0 0 0 0 0 0 0 0 0 0 0 0 0 0 0 0 0 0 0 0 0 0 1

GEFSSE_con_probscp_186.txt.gz
Probability
0 0 0 0 0 0 0 0 0 0 0 0 0 0 0 0 0 0 0 0 0 0 0 0 0 0 0 0 0 0 0 0 0 0 0 0 0 0 0 0 0 0 0
0 0 0 0 0 0 0 0 0 0 0 0 0 0 0 0 0 0 0 0 0 0 0 0 0 0 0 0 0 0 0 0 0 0 0 0 0 0 0 0 0 0 0
0 0 0 0 0 0 0 0 0 0 0 0 0 0 0 0 0 0 0 0 0 0 0 0 0 0 0 0 0 0 0 0 0 0 0 0 0 0 0 0 0 0 0
0 0 0 0 0 0 0 0 0 0 0 0 0 0 0 0 0 0 0 0 0 0 0 0 0 0 0 0 0 0 0 0 0 0 0 0 0 0 0 0 0 0 0
0 0 0 0 0 0 0 0 0 0 0 0 0 0 0 0 0 0 0 0 0 0 0 0 0 0 0 0 0 0 0 0 0 0 0 0 0 0 0 0 0 0 0
0 0 1 1 1 1 0 0 0 0 0 0 0 0 0 0 0 0 0 0 0 0 0 0 0 0 0 0 0 0 0 0 0 0 0 0 0 0 0 0 0 0 0
0 0 1 2 2 1 0 0 0 0 0 0 0 0 0 0 0 0 0 0 0 0 0 0 0 0 0 0 0 0 0 0 0 0 0 0 0 0 0 0 0 0 0
0 0 0 1 2 1 0 0 0 0 0 0 0 0 0 0 0 0 0 0 0 0 0 0 0 0 0 0 0 0 0 0 0 0 0 0 0 0 0 0 0 0 0
0 0 0 0 0 0 0 0 0 0 0 0 0 0 0 0 0 0 0 0 0 0 0 0 0 0 0 0 0 0 0 0 0 0 0 0 0 0 0 0 0 0 0
1 0 0 0 0 0 0 0 0 0 0 0 0 0 0 0 0 0 0 0 0 0 0 0 0 0 0 0 0 0 0 0 0 0 0 0 0 0 0 0 0 0 0
2 1 0 0 0 0 0 0 0 0 0 0 0 0 0 0 0 0 0 0 0 0 0 0 0 0 0 0 0 0 0 0 0 0 0 0 0 0 0 0 0 0 0
3 2 1 0 0 0 0 0 0 0 0 0 0 0 0 0 0 0 0 0 0 0 0 0 0 0 0 0 0 0 0 0 0 0 0 0 0 0 0 0 0 0 0
3 2 1 0 0 0 0 0 0 0 0 0 0 0 0 0 0 0 0 0 0 0 0 0 0 0 0 0 0 0 0 0 0 0 0 0 0 0 0 0 0 0 0
1 1 1 0 0 0 0 0 0 0 0 0 0 0 0 0 0 0 0 0 0 0 0 0 0 0 0 0 0 0 0 0 0 0 0 0 0 0 0 0 0 0 0
0 0 0 0 0 0 0 0 0 0 0 0 0 0 0 0 0 0 0 0 0 0 0 0 0 0 0 0 0 0 0 0 0 0 0 0 0 0 0 0 0 0 0
0 0 0 0 0 0 0 0 0 0 0 0 0 0 0 0 0 0 0 0 0 0 0 0 0 0 0 0 0 0 0 0 0 0 0 0 0 0 0 0 0 0 0
1 1 1 1 1 0 0 0 0 0 0 0 0 0 0 0 0 0 0 0 0 0 0 0 0 0 0 0 0 0 0 0 0 0 0 0 0 0 0 0 0 0 0
2 2 2 2 2 1 0 0 0 0 0 0 0 0 0 0 0 0 0 0 0 0 0 0 0 0 0 0 0 0 0 0 0 0 0 0 0 0 0 0 0 0 0
4 3 3 3 3 2 1 1 1 1 1 0 0 0 0 0 0 0 0 0 0 0 0 0 0 0 0 0 0 0 0 0 0 0 0 0 0 0 0 0 0 0 1
5 4 3 4 4 4 4 2 1 0 0 0 0 0 0 0 0 0 0 0 0 0 0 0 0 0 0 0 0 0 0 0 0 0 0 0 0 0 0 0 0 1 3
5 4 5 6 6 6 5 2 0 0 0 0 0 0 0 0 0 0 0 0 0 0 0 0 0 0 0 0 0 0 0 0 0 0 0 0 0 0 0 0 0 1 2
5 5 6 7 7 6 5 3 1 0 0 0 0 0 0 0 0 0 0 0 0 0 0 0 0 0 0 0 0 0 0 0 0 0 0 0 0 0 0 0 0 0 1
5 6 7 7 6 6 7 5 3 1 1 0 0 0 0 0 0 0 0 0 0 0 0 0 0 0 0 0 0 0 0 0 0 0 0 0 0 0 0 0 0 0 0
6 7 8 6 5 6 7 6 5 4 2 0 0 1 1 0 0 0 0 0 0 0 0 0 0 0 0 0 0 0 0 0 0 0 0 0 0 0 0 0 0 0 0
7 7 7 5 4 4 6 6 6 5 3 1 1 2 2 1 0 0 0 0 0 0 0 0 0 0 0 0 0 0 0 0 0 0 0 0 0 0 0 0 0 0 0
8 7 6 4 3 4 6 6 6 5 4 2 1 2 2 1 0 0 0 0 0 0 0 0 0 0 0 0 0 0 0 0 0 0 0 0 0 0 0 0 0 0 0